                ,  0.243,  0.340,  0.436,  0.533,  0.630,  0.726,  0.823,  0.919,  1.016,  1.113,  1.209,  1.306,  1.402,  1.499,  1.595,  1.692,  1.789,  1.885,  1.982,  2.078,  2.175,  2.272,  2.368,  2.465,  2.561,  2.658,  2.755,  2.851,  2.948,  3.044,  3.141,  3.238,  3.334,  3.431,  3.527,  3.624,  3.721,  3.817,  3.914,  4.010,  4.107,  4.203,  4.300,  4.397,  4.493,  4.590,  4.686,  4.783,  4.880,  4.976,  5.073,  5.169,  5.266,  5.363,  5.459,  5.556,  5.652,  5.749,  5.846,  5.942,  6.039,  6.135,  6.232,  6.329,  6.425,  6.522,  6.618,  6.715,  6.811,  6.908,  7.005,  7.101,  7.198,  7.294,  7.391,  7.488,  7.584,  7.681,  7.777,  7.874,  7.971,  8.067,  8.164,  8.260,  8.357,  8.454,  8.550,  8.647,  8.743,  8.840,  8.937,  9.033,  9.130,  9.226,  9.323,  9.419,  9.516,  9.613
2010/01/26 00:00,  999.0,  999.0,  999.0,  999.0,  999.0,  999.0,    2.8,    2.9,    5.5,    3.5,  999.0,  999.0,    1.9,  999.0,  999.0,    0.8,    0.9,    1.3,    2.3,    2.5,    3.0,    2.6,    3.7,    4.1,    4.4,    3.5,    3.2,    3.8,    4.1,    4.6,    4.3,    4.7,    5.0,  999.0,    5.7,  999.0,    4.4,  999.0,  999.0,  999.0,  999.0,  999.0,  999.0,    5.6,  999.0,  999.0,    7.0,  999.0,  999.0,    3.4,    4.1,    4.0,    2.2,    1.5,    1.4,    0.7,    2.7,    3.3,    5.0,    5.8,    6.0,    5.8,    5.8,    6.2,    6.0,    4.6,    3.5,    2.3,    2.1,    1.8,    1.7,    2.0,    2.4,    3.1,    4.0,    4.7,    4.9,    5.2,    5.5,    5.9,    6.1,    6.1,    5.9,    5.4,    4.9,    4.8,    4.9,    4.1,    3.1,    1.7,    0.5,   -0.5,   -1.3,   -1.4,   -1.3,   -1.2,   -0.9,   -0.6
2010/01/26 00:10,  999.0,  999.0,  999.0,  999.0,  999.0,    1.6,  999.0,  999.0,  999.0,  999.0,  999.0,  999.0,  999.0,  999.0,  999.0,    1.5,    1.3,    1.9,    2.6,    2.6,    3.1,    3.7,    4.5,    4.9,    5.3,    4.2,    4.3,    4.7,    4.0,    4.0,    4.9,    4.9,    4.7,    4.7,  999.0,  999.0,  999.0,  999.0,  999.0,  999.0,  999.0,  999.0,    4.5,    4.8,  999.0,  999.0,    7.2,  999.0,  999.0,    3.3,    3.7,    3.3,    1.4,    0.0,    0.9,    1.0,    1.9,    2.7,    4.0,    5.1,    5.8,    5.9,    5.9,    6.1,    5.5,    4.0,    2.7,    1.7,    1.5,    1.6,    2.1,    2.6,    3.3,    3.9,    4.3,    4.1,    4.0,    4.2,    4.5,    4.8,    4.9,    4.8,    4.6,    4.4,    4.2,    4.2,    4.1,    3.8,    3.6,    3.0,    2.4,    1.7,    0.8,    0.4,    0.2,    0.3,    0.4,    0.7
2010/01/26 00:20,   -0.3,  999.0,    0.8,  999.0,  999.0,  999.0,  999.0,    2.3,  999.0,  999.0,  999.0,  999.0,    1.8,    1.9,  999.0,    1.6,    1.9,    2.3,    2.7,    2.9,    2.8,    3.1,    4.1,    4.3,    4.5,    4.7,    3.8,    4.2,    3.3,    3.5,    4.0,    3.9,    4.2,  999.0,  999.0,  999.0,  999.0,  999.0,  999.0,    3.3,  999.0,    3.0,  999.0,  999.0,  999.0,    5.6,    6.9,    6.7,    6.8,  999.0,    3.7,    4.1,    4.0,    3.9,    3.8,    3.5,    3.3,    4.1,    4.5,    5.2,    6.0,    6.5,    6.6,    6.5,    5.3,    3.9,    2.6,    1.5,    1.6,    2.1,    2.8,    3.4,    4.1,    4.5,    4.4,    4.1,    4.2,    4.5,    4.9,    5.2,    5.5,    5.5,    5.5,    5.4,    5.5,    5.5,    5.6,    5.5,    5.3,    5.2,    5.0,    4.5,    4.9,    4.4,    4.2,    3.5,    3.2,    2.8
2010/01/26 00:30,   -1.4,  999.0,  999.0,  999.0,  999.0,  999.0,    2.2,    1.8,    0.6,  999.0,   -0.7,  999.0,  999.0,  999.0,  999.0,  999.0,  999.0,    1.9,    1.9,    2.4,    2.8,    3.6,    3.3,    3.2,    3.5,    3.6,    3.3,    3.6,    3.1,    2.9,    3.4,    4.0,    4.1,  999.0,    3.1,  999.0,  999.0,  999.0,  999.0,    3.8,  999.0,    4.0,  999.0,  999.0,  999.0,  999.0,  999.0,  999.0,    2.7,    2.8,    3.0,    2.7,    3.1,    3.6,    3.6,    3.9,    4.2,    4.7,    5.4,    5.8,    6.5,    7.1,    6.9,    5.1,    4.0,    3.2,    1.9,    1.3,    1.7,    2.6,    3.1,    3.5,    4.0,    4.4,    4.5,    4.2,    4.0,    4.1,    4.3,    4.1,    3.8,    3.9,    4.1,    4.4,    4.6,    4.5,    4.4,    4.4,    4.5,    4.7,    4.6,    4.6,    4.6,    4.7,    4.9,    5.2,    5.5,    5.6
2010/01/26 00:40,  999.0,  999.0,  999.0,  999.0,    1.2,  999.0,  999.0,    0.6,    0.9,    0.4,  999.0,  999.0,  999.0,  999.0,  999.0,    1.2,    1.7,    2.4,    2.0,    2.2,    2.4,  999.0,    2.4,    3.2,    3.7,    3.8,    3.2,    3.1,    3.6,    2.8,    3.7,    3.0,    3.5,    3.6,    2.3,    2.6,  999.0,  999.0,  999.0,    3.0,  999.0,  999.0,  999.0,  999.0,  999.0,  999.0,  999.0,    2.2,    2.4,    2.8,    2.6,    2.4,    2.9,    3.0,    3.5,    4.1,    5.0,    6.0,    6.7,    6.9,    7.1,    7.1,    6.5,    4.9,    3.6,    2.8,    1.4,    1.4,    1.9,    2.5,    3.1,    3.7,    4.2,    4.4,    4.3,    4.2,    3.9,    3.7,    3.7,    3.5,    3.4,    3.3,    3.4,    3.2,    3.3,    3.5,    3.8,    4.1,    4.6,    4.9,    5.0,    5.0,    5.2,    5.4,    5.5,    5.6,    5.9,    6.0
2010/01/26 00:50,  999.0,   -0.8,  999.0,   -1.0,   -0.5,    2.0,  999.0,  999.0,    2.3,    1.4,    0.2,    1.6,  999.0,  999.0,  999.0,  999.0,    3.1,    2.7,    2.9,    2.8,    3.5,    3.3,    3.4,    3.7,    3.8,    4.5,    4.7,    3.8,    3.8,    4.5,    4.0,    3.6,    4.0,    3.9,  999.0,    2.5,    3.4,  999.0,  999.0,    3.1,  999.0,    2.8,  999.0,  999.0,  999.0,  999.0,  999.0,  999.0,  999.0,    1.8,    2.6,    3.3,    3.5,    4.0,    4.7,    5.2,    6.0,    6.9,    7.4,    7.6,    7.4,    7.3,    6.9,    5.6,    3.7,    3.2,    1.9,    1.6,    2.1,    2.6,    2.7,    3.1,    3.4,    3.1,    2.6,    2.4,    2.3,    2.2,    2.3,    2.6,    2.7,    2.7,    2.8,    3.1,    3.2,    3.2,    3.4,    3.6,    4.0,    4.3,    4.4,    4.6,    4.9,    4.9,    4.3,    3.8,    3.6,    3.4
2010/01/26 01:00,   -1.9,    0.5,  999.0,   -0.1,  999.0,  999.0,  999.0,  999.0,  999.0,  999.0,    0.7,    1.6,    1.2,    1.0,    0.2,    1.9,    2.6,    2.9,    3.4,  999.0,  999.0,    2.7,    2.8,    3.3,    4.2,    4.3,    4.1,    3.9,    4.1,    4.3,    4.7,    3.6,    4.0,    3.8,  999.0,  999.0,  999.0,  999.0,  999.0,    3.4,    3.5,    3.0,  999.0,  999.0,  999.0,    4.6,    5.3,  999.0,    1.5,    2.6,    3.1,    3.1,    3.4,    3.8,    4.6,    5.3,    6.3,    7.0,    7.4,    7.5,    7.1,    7.1,    7.0,    6.2,    5.0,    3.9,    3.0,    1.9,    1.7,    1.9,    2.3,    2.5,    2.8,    3.0,    2.7,    2.5,    2.7,    2.5,    2.2,    2.3,    2.6,    2.7,    2.5,    2.5,    2.6,    2.8,    3.1,    3.4,    3.4,    3.1,    3.2,    3.4,    3.7,    4.1,    4.2,    4.2,    4.1,    4.1
2010/01/26 01:10,  999.0,    1.4,    0.8,   -1.5,  999.0,  999.0,  999.0,  999.0,  999.0,  999.0,    1.9,    0.9,    1.4,    1.5,    1.3,    1.5,    1.9,    2.0,    0.4,    2.9,    3.7,    3.2,    2.7,    3.4,    4.3,  999.0,    3.6,    3.7,    3.6,    3.8,    4.3,    3.9,    4.3,    3.6,    3.6,  999.0,  999.0,  999.0,  999.0,  999.0,    3.8,    3.8,    4.3,  999.0,    3.8,    4.3,  999.0,  999.0,  999.0,    2.2,    2.2,    2.8,    3.1,    3.7,    4.3,    5.0,    5.8,    6.6,    7.3,    7.3,    7.3,    7.2,    7.1,    6.4,    5.2,    4.4,    3.9,    3.3,    2.2,    2.0,    2.4,    2.6,    2.6,    2.9,    3.0,    2.9,    2.8,    2.5,    2.2,    2.2,    2.2,    2.5,    2.5,    2.3,    2.2,    2.0,    2.1,    2.1,    2.0,    2.0,    1.9,    1.9,    2.1,    2.5,    3.0,    3.4,    3.6,    3.4
2010/01/26 01:20,  999.0,  999.0,   -2.3,   -1.2,    0.1,  999.0,    2.0,    1.7,    0.3,  999.0,  999.0,    1.1,    1.0,    1.8,    1.3,    1.6,    1.9,    2.3,    2.8,  999.0,    3.9,    4.1,    4.0,    4.4,    4.4,    4.5,    4.0,    4.0,    4.2,    5.0,    4.9,    4.2,    4.7,    3.5,    4.0,  999.0,  999.0,  999.0,  999.0,  999.0,    3.5,    3.5,    3.7,    3.3,    2.4,    2.8,    2.9,  999.0,    3.1,    3.6,    2.8,  999.0,    2.2,    2.6,    3.4,    4.3,    5.3,    6.4,    7.4,    7.6,    8.2,    8.0,    7.8,    7.3,    6.2,    4.7,    4.0,    3.1,    2.2,    2.1,    2.4,    2.7,    2.9,    3.1,    3.4,    3.5,    3.4,    3.1,    2.7,    2.4,    2.4,    2.4,    2.3,    2.1,    2.0,    1.9,    1.8,    1.6,    1.6,    1.7,    1.5,    1.2,    1.2,    1.5,    1.8,    2.0,    2.1,    2.2
2010/01/26 01:30,  999.0,  999.0,  999.0,  999.0,  999.0,  999.0,  999.0,    1.7,    0.2,  999.0,  999.0,  999.0,   -1.6,   -0.2,   -0.9,    0.2,    1.7,    1.6,    2.6,    3.4,    4.0,    4.1,    4.6,    4.7,    4.3,    4.2,    4.3,    4.1,    4.3,    4.5,    4.9,    4.2,    3.8,    3.5,  999.0,  999.0,  999.0,  999.0,  999.0,  999.0,  999.0,    2.5,    2.8,    3.1,    3.0,    2.8,    2.5,    2.7,    2.3,    2.3,    2.3,    2.3,  999.0,  999.0,  999.0,    4.6,    5.6,    5.9,    6.5,    7.4,    7.4,    7.1,    6.8,    6.1,    5.3,    4.4,    3.8,    3.0,    1.9,    1.8,    2.3,    2.8,    3.1,    3.3,    3.6,    3.8,    3.7,    3.6,    3.7,    3.7,    3.6,    3.5,    3.1,    2.5,    2.2,    2.3,    2.0,    1.7,    1.4,    1.1,    0.8,    0.6,    0.3,    0.4,    0.4,    1.0,    1.4,    1.6
2010/01/26 01:40,  999.0,  999.0,  999.0,  999.0,    0.2,  999.0,  999.0,    1.4,    2.0,    0.3,    0.6,  999.0,  999.0,    0.8,    1.2,    0.8,    1.1,    2.0,    2.8,    4.2,    4.6,    4.0,    4.0,    4.6,    4.1,    4.2,    4.7,    5.0,    5.4,    5.6,    5.0,    4.8,    3.8,    4.0,    4.4,  999.0,    3.7,  999.0,    3.3,  999.0,  999.0,    2.1,    2.5,    2.4,    2.4,  999.0,    2.0,  999.0,    1.9,    2.1,    2.1,    2.1,    2.1,  999.0,  999.0,  999.0,  999.0,  999.0,  999.0,  999.0,    7.5,    7.4,    6.6,    6.2,    5.8,    5.3,    4.8,    4.6,    4.1,    3.0,    2.4,    2.6,    2.9,    3.2,    3.5,    3.7,    3.7,    3.9,    4.0,    4.1,    4.2,    4.3,    4.4,    4.4,    3.9,    3.3,    2.9,    2.7,    2.6,    2.6,    2.1,    1.5,    1.1,    0.8,    0.7,    0.8,    1.2,    1.3
2010/01/26 01:50,   -0.3,   -0.4,  999.0,  999.0,  999.0,  999.0,  999.0,  999.0,  999.0,    0.2,    0.8,    0.4,  999.0,    0.6,    0.8,    1.1,    2.0,    2.7,    3.4,    4.3,    4.4,    4.6,    4.9,    5.2,    4.6,    4.2,    4.8,    4.9,    5.2,    5.8,    4.6,    4.6,    4.2,    3.9,    4.0,    4.2,    4.1,    3.5,    3.5,  999.0,  999.0,    1.8,    2.1,    1.6,    1.8,  999.0,    1.7,    2.1,    2.0,    2.0,    2.1,    2.5,  999.0,  999.0,  999.0,  999.0,  999.0,  999.0,  999.0,    6.8,    7.5,    7.2,    6.7,    6.4,    5.7,    5.1,    4.1,    3.3,    2.7,    1.8,    1.4,    1.7,    2.3,    2.8,    3.4,    3.7,    4.0,    4.0,    4.1,    4.4,    4.6,    4.8,    4.9,    4.6,    4.1,    3.8,    3.7,    4.0,    4.3,    4.5,    3.8,    2.7,    2.1,    1.9,    2.1,    2.4,    2.5,    2.4
2010/01/26 02:00,   -0.6,    0.6,    0.5,    0.6,  999.0,  999.0,  999.0,  999.0,   -0.0,   -0.5,  999.0,    2.7,    0.1,    0.1,    1.3,    1.1,    0.8,    2.8,  999.0,    2.8,    3.6,    4.3,    5.1,    4.8,    4.2,    3.4,    3.2,    4.1,    4.6,    5.0,    4.8,    4.1,    3.5,    3.4,    3.9,  999.0,  999.0,    2.5,    2.6,  999.0,    2.3,    2.4,    2.4,    2.0,    2.0,    2.4,  999.0,  999.0,    2.7,    2.3,    2.3,    3.1,  999.0,  999.0,  999.0,  999.0,  999.0,  999.0,  999.0,    5.0,    6.6,    6.5,    5.5,    4.8,    4.1,    3.7,    3.5,    3.6,    3.5,    2.9,    2.1,    2.3,    2.7,    2.9,    3.1,    3.4,    3.6,    3.4,    3.4,    3.5,    3.8,    4.3,    4.6,    4.5,    4.3,    4.5,    4.6,    4.5,    4.0,    3.6,    3.3,    3.5,    4.1,    4.7,    5.0,    5.1,    4.8,    5.3
2010/01/26 02:10,   -1.1,  999.0,  999.0,  999.0,  999.0,  999.0,  999.0,  999.0,  999.0,  999.0,   -1.0,    1.3,   -0.1,   -0.4,    0.3,    0.1,    0.5,    1.4,    2.0,    2.7,    3.8,    4.5,    4.9,    5.0,    4.8,    2.9,    3.2,    3.7,    4.1,    4.3,    3.8,    3.8,    3.6,    3.4,    3.9,  999.0,    2.3,    1.7,    2.4,  999.0,  999.0,    1.5,    1.6,    1.2,    1.1,    1.5,  999.0,  999.0,    2.1,    2.6,    2.7,  999.0,  999.0,  999.0,  999.0,  999.0,  999.0,  999.0,  999.0,  999.0,  999.0,  999.0,    6.0,    5.5,    4.6,    4.1,    4.0,    4.1,    4.3,    3.7,    3.0,    3.3,    3.7,    4.1,    4.5,    5.0,    5.3,    5.4,    5.2,    5.3,    5.2,    4.6,    4.5,    4.5,    4.7,    5.0,    5.4,    6.1,    7.0,    7.3,    7.6,    7.8,    7.8,    7.6,    6.8,    6.9,  999.0,    6.4
2010/01/26 02:20,  999.0,  999.0,  999.0,    1.5,  999.0,    0.9,  999.0,  999.0,  999.0,  999.0,  999.0,  999.0,    2.8,  999.0,  999.0,    1.7,    0.5,    1.4,    2.2,    2.9,    4.0,    4.7,    5.4,    5.3,    5.1,    4.2,    3.7,    3.2,    3.5,    3.0,    2.6,    2.5,    2.9,    3.0,    3.0,  999.0,    1.8,    2.1,  999.0,  999.0,  999.0,    0.8,    0.8,    0.8,    1.2,    1.2,  999.0,  999.0,  999.0,    1.3,    1.3,  999.0,  999.0,  999.0,    3.2,    4.0,  999.0,  999.0,  999.0,    5.7,    6.6,    7.1,    6.3,    5.6,    4.8,    4.5,    4.3,    4.0,    3.4,    2.6,    2.5,    2.8,    3.2,    3.3,    3.5,    3.7,    4.1,    4.4,    4.6,    4.8,    4.8,    4.4,    4.5,    5.2,    6.0,    7.0,    7.6,    8.2,    8.3,    8.3,    8.4,    8.6,    8.8,    9.1,    8.3,  999.0,  999.0,  999.0
2010/01/26 02:30,  999.0,  999.0,  999.0,  999.0,  999.0,  999.0,  999.0,  999.0,  999.0,    3.4,    4.8,    4.2,    3.1,    1.2,    1.2,    1.2,    1.3,    1.0,    2.3,    3.1,    4.3,    4.9,    5.6,    6.2,    6.3,    5.6,    4.7,    5.3,    4.7,    4.5,    3.7,    2.9,    2.9,    2.3,    2.7,    3.0,    2.0,    2.3,  999.0,  999.0,  999.0,    0.4,    0.8,    0.9,    1.3,    1.1,    1.2,    1.3,    1.5,    1.0,    1.1,  999.0,  999.0,    2.9,    3.8,  999.0,  999.0,  999.0,  999.0,  999.0,  999.0,  999.0,  999.0,    4.3,    4.6,    5.1,    5.2,    4.7,    3.8,    3.4,    2.3,    2.0,    2.3,    2.7,    2.9,    3.3,    3.6,    4.2,    4.5,    4.8,    4.9,    4.7,    4.8,    5.3,    6.2,    6.6,    6.7,    7.1,    7.1,    7.4,    7.4,    6.4,    6.5,    6.7,  999.0,  999.0,  999.0,  999.0
2010/01/26 02:40,  999.0,  999.0,  999.0,  999.0,    0.3,  999.0,    2.7,    4.6,    5.4,    4.5,    5.6,    4.8,    4.3,    2.8,    1.3,    1.1,    0.9,    1.6,    2.3,    3.5,    4.4,    5.1,    6.1,    5.4,    6.0,    6.3,    5.4,    4.8,    5.5,    5.6,    4.7,    4.1,    3.3,    2.7,    2.9,    3.4,    3.4,    2.0,  999.0,  999.0,  999.0,    0.7,    0.6,    0.6,    0.9,    1.0,    0.9,    1.2,    1.3,    1.2,    1.0,  999.0,    1.7,    2.2,  999.0,  999.0,  999.0,  999.0,  999.0,  999.0,    7.0,    6.2,    6.1,    5.6,    4.8,    4.3,    3.5,    2.9,    2.8,    2.1,    1.8,    1.9,    2.3,    2.6,    3.0,    3.3,    3.9,    4.4,    4.8,    4.9,    5.2,    5.3,    5.6,    5.5,    4.8,    4.4,    4.5,    4.7,    5.0,    5.2,    5.8,    5.8,  999.0,    5.4,    5.5,    5.9,    4.9,  999.0
2010/01/26 02:50,  999.0,  999.0,  999.0,    8.6,  999.0,  999.0,  999.0,  999.0,    5.2,    7.5,    4.5,    5.8,   10.3,    5.2,    5.9,  999.0,    2.6,    3.9,    4.7,    5.3,    5.5,    5.9,    5.8,    5.6,    5.4,    6.0,    5.8,  999.0,  999.0,    6.6,    5.9,    5.3,  999.0,    4.0,    3.7,    3.1,    3.5,  999.0,  999.0,  999.0,  999.0,  999.0,  999.0,    0.9,    1.2,    1.3,    0.9,    1.2,    1.0,    0.9,    0.8,  999.0,    2.0,    1.9,  999.0,  999.0,  999.0,  999.0,  999.0,  999.0,  999.0,    5.8,    5.9,    5.5,    5.3,    4.3,    3.5,    2.9,    2.6,    2.0,    1.8,    2.1,    2.7,    3.2,    3.6,    4.0,    4.3,    4.5,    4.6,    4.8,    4.9,    5.2,    5.3,  999.0,    3.0,    3.5,    3.4,  999.0,  999.0,  999.0,    3.5,    4.3,  999.0,  999.0,  999.0,  999.0,  999.0,  999.0
2010/01/26 03:00,  999.0,  999.0,  999.0,  999.0,    2.3,    3.2,    4.0,    3.7,    4.3,    5.1,    5.2,    4.5,    4.7,    3.2,    2.6,    3.2,    3.9,    4.8,    5.1,    6.0,    6.6,    7.4,    7.8,    6.0,    6.0,    6.3,    4.6,    5.2,    6.1,    5.1,    5.7,  999.0,  999.0,    4.2,    4.2,    4.8,  999.0,  999.0,  999.0,  999.0,  999.0,    1.6,    1.7,  999.0,  999.0,    1.3,    1.0,  999.0,  999.0,  999.0,  999.0,  999.0,    2.6,    2.3,  999.0,  999.0,  999.0,  999.0,  999.0,  999.0,  999.0,  999.0,  999.0,    5.4,    5.0,    4.5,    4.2,    4.1,    3.9,    3.2,    2.6,    2.5,    2.9,    3.3,    3.6,    3.7,    3.8,    3.9,    4.2,    4.5,    4.5,    4.8,    5.9,  999.0,  999.0,  999.0,  999.0,  999.0,  999.0,  999.0,  999.0,  999.0,  999.0,  999.0,  999.0,  999.0,  999.0,  999.0
2010/01/26 03:10,  999.0,  999.0,  999.0,  999.0,  999.0,    0.5,    2.4,    2.5,  999.0,    5.9,    4.4,    7.9,    4.0,    3.3,    3.5,    4.0,    4.5,    5.1,    5.4,    5.4,    5.4,    5.2,    5.4,    5.1,    5.1,    4.4,    3.3,    6.3,    7.2,  999.0,    6.3,    6.8,    5.1,    3.6,    3.9,    5.0,  999.0,  999.0,    2.8,    2.7,  999.0,    1.1,    1.0,    0.9,  999.0,  999.0,  999.0,    0.7,    0.5,    0.4,  999.0,  999.0,  999.0,    1.5,  999.0,  999.0,  999.0,  999.0,  999.0,  999.0,  999.0,  999.0,  999.0,    4.5,    4.7,    4.6,    4.3,    4.4,    3.7,    2.8,    2.6,    2.5,    2.7,    2.9,    3.1,    3.2,    3.4,    3.7,    4.1,    4.1,    4.3,  999.0,  999.0,  999.0,  999.0,  999.0,  999.0,  999.0,  999.0,  999.0,  999.0,  999.0,  999.0,  999.0,  999.0,  999.0,  999.0,  999.0
2010/01/26 03:20,  999.0,  999.0,  999.0,  999.0,  999.0,  999.0,  999.0,    3.4,    4.6,    3.2,    3.0,    1.7,    4.0,    4.2,    3.3,    4.3,    5.4,    5.1,    5.4,    5.7,    6.5,    6.7,    6.9,    5.8,    5.3,    5.1,  999.0,    6.3,    5.9,    6.5,    6.2,    6.5,    3.6,    3.8,    3.5,    3.6,  999.0,  999.0,    2.5,    3.1,    1.2,  999.0,    1.0,    0.9,  999.0,  999.0,  999.0,    0.8,    0.5,  999.0,  999.0,  999.0,    1.6,    2.1,  999.0,  999.0,  999.0,  999.0,  999.0,  999.0,  999.0,  999.0,  999.0,    4.8,    4.7,    4.2,    4.5,    4.0,    3.2,    2.7,    2.5,    2.6,    2.8,    3.0,    3.2,  999.0,  999.0,  999.0,  999.0,  999.0,  999.0,  999.0,  999.0,  999.0,  999.0,  999.0,  999.0,  999.0,  999.0,  999.0,  999.0,  999.0,  999.0,  999.0,  999.0,  999.0,  999.0,  999.0
2010/01/26 03:30,  999.0,  999.0,  999.0,  999.0,  999.0,  999.0,  999.0,    3.8,    4.3,    2.3,    6.4,    4.9,    3.9,    4.9,    4.9,    5.0,    4.7,    5.4,    5.8,    5.8,    6.3,    6.4,    6.2,    6.4,  999.0,    5.6,  999.0,  999.0,    6.0,    6.4,    6.9,    7.4,    4.1,    4.1,    4.4,  999.0,  999.0,  999.0,  999.0,  999.0,    1.7,    1.8,    1.4,    1.1,  999.0,  999.0,  999.0,  999.0,    0.5,    1.0,  999.0,  999.0,  999.0,  999.0,  999.0,  999.0,  999.0,  999.0,  999.0,  999.0,  999.0,  999.0,  999.0,  999.0,  999.0,  999.0,    3.9,    3.3,    2.7,    2.8,    3.0,    2.9,  999.0,  999.0,  999.0,  999.0,  999.0,  999.0,  999.0,  999.0,  999.0,  999.0,  999.0,  999.0,  999.0,  999.0,  999.0,  999.0,  999.0,  999.0,  999.0,  999.0,  999.0,  999.0,  999.0,  999.0,  999.0,  999.0
2010/01/26 03:40,   -0.4,  999.0,  999.0,  999.0,  999.0,    6.1,    3.5,    2.8,    4.0,  999.0,    6.2,    4.6,    4.4,    4.6,    5.1,    5.1,    5.1,    5.7,    6.7,    6.2,    6.6,    6.4,    6.4,    6.8,    6.5,    6.0,    5.7,    5.3,    5.9,    5.9,    6.3,    6.0,    3.9,    4.1,    3.4,    4.0,  999.0,  999.0,  999.0,  999.0,    2.8,    2.2,    2.0,  999.0,  999.0,  999.0,  999.0,  999.0,    0.5,    0.6,    0.9,    1.3,    0.5,  999.0,  999.0,  999.0,  999.0,  999.0,  999.0,  999.0,  999.0,  999.0,  999.0,  999.0,  999.0,  999.0,  999.0,  999.0,  999.0,  999.0,  999.0,  999.0,  999.0,  999.0,  999.0,  999.0,  999.0,  999.0,  999.0,  999.0,  999.0,  999.0,  999.0,  999.0,  999.0,  999.0,  999.0,  999.0,  999.0,  999.0,  999.0,  999.0,  999.0,  999.0,  999.0,  999.0,  999.0,  999.0
2010/01/26 03:50,  999.0,  999.0,    5.1,    7.6,  999.0,  999.0,  999.0,    8.2,   10.9,    3.3,   13.2,  999.0,  999.0,    5.3,    4.7,    5.1,    5.7,    6.1,    6.5,    7.0,    7.0,    7.5,    7.2,    7.2,    6.8,    6.6,    6.4,    6.6,    6.4,    6.0,    5.4,    4.8,    4.1,    4.5,    5.1,    5.6,  999.0,  999.0,  999.0,  999.0,  999.0,    2.5,  999.0,  999.0,  999.0,  999.0,  999.0,  999.0,  999.0,  999.0,  999.0,  999.0,  999.0,  999.0,  999.0,  999.0,  999.0,  999.0,  999.0,  999.0,  999.0,  999.0,  999.0,  999.0,  999.0,  999.0,  999.0,  999.0,  999.0,  999.0,  999.0,  999.0,  999.0,  999.0,  999.0,  999.0,  999.0,  999.0,  999.0,  999.0,  999.0,  999.0,  999.0,  999.0,  999.0,  999.0,  999.0,  999.0,  999.0,  999.0,  999.0,  999.0,  999.0,  999.0,  999.0,  999.0,  999.0,  999.0
2010/01/26 04:00,  999.0,  999.0,  999.0,  999.0,  999.0,  999.0,    2.6,    0.7,    2.0,    1.1,    6.2,    7.8,    4.2,    5.3,   10.0,    6.8,    6.1,    5.8,    5.6,    5.8,    6.1,    6.1,    6.4,    6.0,    5.6,    5.6,    5.6,    5.8,    6.0,    6.1,    5.5,    5.7,    4.5,    3.7,    3.8,    4.7,  999.0,  999.0,  999.0,  999.0,    2.5,    2.6,    2.6,    2.2,  999.0,  999.0,  999.0,  999.0,  999.0,    1.3,    2.2,  999.0,  999.0,  999.0,  999.0,  999.0,  999.0,  999.0,  999.0,  999.0,  999.0,  999.0,  999.0,  999.0,  999.0,  999.0,  999.0,  999.0,  999.0,  999.0,  999.0,  999.0,  999.0,  999.0,  999.0,  999.0,  999.0,  999.0,  999.0,  999.0,  999.0,  999.0,  999.0,  999.0,  999.0,  999.0,  999.0,  999.0,  999.0,  999.0,  999.0,  999.0,  999.0,  999.0,  999.0,  999.0,  999.0,  999.0
2010/01/26 04:10,  999.0,  999.0,  999.0,  999.0,    3.6,    3.9,    3.7,    4.0,    4.1,    3.8,    4.4,    4.5,    3.8,    3.9,    4.2,    5.8,    4.2,    5.6,    6.3,    5.9,    5.6,    6.1,    6.0,    6.3,    6.0,    6.4,    6.3,    6.2,    5.4,    5.8,    5.8,    5.1,    4.4,    3.6,    4.2,  999.0,    4.7,  999.0,  999.0,  999.0,  999.0,    3.7,    3.6,    2.7,  999.0,  999.0,  999.0,  999.0,  999.0,  999.0,    3.4,  999.0,  999.0,  999.0,  999.0,  999.0,  999.0,  999.0,  999.0,  999.0,  999.0,  999.0,  999.0,  999.0,  999.0,  999.0,  999.0,  999.0,    2.8,  999.0,  999.0,  999.0,  999.0,  999.0,  999.0,  999.0,  999.0,  999.0,  999.0,  999.0,  999.0,  999.0,  999.0,  999.0,  999.0,  999.0,  999.0,  999.0,  999.0,  999.0,  999.0,  999.0,  999.0,  999.0,  999.0,  999.0,  999.0,  999.0
2010/01/26 04:20,  999.0,  999.0,  999.0,  999.0,  999.0,  999.0,  999.0,  999.0,    2.9,    5.4,    6.4,    3.4,    2.7,  999.0,  999.0,   -4.3,   -2.1,   -0.8,    3.8,    1.4,    3.6,    2.6,    3.7,    3.5,    4.9,    4.7,    5.9,    6.8,    7.2,    6.8,    7.0,    6.5,    6.4,    4.7,    4.8,    5.0,    5.6,  999.0,  999.0,  999.0,    3.7,    3.8,    3.8,    3.5,    3.6,  999.0,  999.0,  999.0,  999.0,    1.2,    1.6,  999.0,  999.0,  999.0,  999.0,  999.0,  999.0,  999.0,  999.0,  999.0,  999.0,  999.0,  999.0,  999.0,  999.0,  999.0,  999.0,  999.0,  999.0,  999.0,  999.0,  999.0,  999.0,  999.0,  999.0,  999.0,  999.0,  999.0,  999.0,  999.0,  999.0,  999.0,  999.0,  999.0,  999.0,  999.0,  999.0,  999.0,  999.0,  999.0,  999.0,  999.0,  999.0,  999.0,  999.0,  999.0,  999.0,  999.0
2010/01/26 04:30,  999.0,  999.0,  999.0,  999.0,    5.1,   -2.9,    1.4,    2.9,    3.1,   -0.7,    2.1,    1.1,    1.5,    2.8,    2.5,    4.1,    4.0,    4.6,    4.4,    3.1,    2.8,    3.4,    4.8,    6.0,    5.3,    5.5,    6.5,    7.0,    6.9,    6.9,    6.5,    5.7,    6.4,    6.1,    6.1,  999.0,  999.0,  999.0,  999.0,  999.0,  999.0,  999.0,    5.5,    4.5,    3.8,  999.0,    4.1,    4.1,    3.6,    3.2,    3.0,    3.7,  999.0,  999.0,  999.0,  999.0,  999.0,  999.0,  999.0,  999.0,  999.0,  999.0,  999.0,  999.0,  999.0,  999.0,  999.0,  999.0,  999.0,  999.0,  999.0,  999.0,  999.0,  999.0,  999.0,  999.0,  999.0,  999.0,  999.0,  999.0,  999.0,  999.0,  999.0,  999.0,  999.0,  999.0,  999.0,  999.0,  999.0,  999.0,  999.0,  999.0,  999.0,  999.0,  999.0,  999.0,  999.0,  999.0
2010/01/26 04:40,  999.0,  999.0,  999.0,   11.6,   11.0,    8.2,    7.9,    8.1,    7.3,    7.8,    7.2,    6.7,    7.2,    5.8,    7.1,    5.4,    5.2,    6.1,    6.1,    6.6,    6.2,    8.4,   13.8,   17.5,   14.3,   13.3,   13.3,   10.4,   10.4,    9.5,    9.8,    5.2,    0.8,    4.4,    5.8,    6.2,    7.4,   10.6,   12.2,   12.0,   10.7,   10.8,    8.5,   15.2,  999.0,  999.0,    7.2,   11.4,   11.7,   11.8,   10.0,    9.7,  999.0,  999.0,  999.0,    7.1,  999.0,    5.1,    4.4,  999.0,  999.0,    5.7,    7.0,    6.9,    7.8,    7.5,  999.0,  999.0,  999.0,  999.0,  999.0,  999.0,  999.0,  999.0,  999.0,  999.0,  999.0,  999.0,  999.0,  999.0,  999.0,  999.0,  999.0,  999.0,  999.0,  999.0,  999.0,  999.0,  999.0,  999.0,  999.0,  999.0,  999.0,  999.0,  999.0,  999.0,  999.0,  999.0
2010/01/26 04:50,  999.0,    5.4,    6.5,    6.9,    6.9,    7.2,    7.5,    7.5,    7.6,    6.8,    6.1,    5.3,    4.3,    2.7,    2.6,    2.3,    2.9,    3.7,    3.3,    1.9,    1.7,    1.5,    1.9,    2.4,    1.5,    2.1,    3.8,    6.5,    6.9,    6.9,    7.0,    9.6,   10.7,    8.2,    9.4,    9.9,   10.0,   10.3,   10.9,    9.9,    9.5,    9.0,    8.0,    6.8,    6.4,    5.2,    5.7,    5.7,    6.9,    5.1,    4.5,    3.5,    4.2,    2.1,    2.0,    3.6,    4.4,    5.4,    7.1,    5.9,    4.8,    4.4,    5.6,    6.8,    7.3,    7.7,    7.5,    6.7,    5.5,    3.0,    1.9,    1.6,    1.1,    0.1,   -0.2,    0.1,    0.7,    2.4,    3.0,  999.0,  999.0,  999.0,  999.0,  999.0,  999.0,  999.0,  999.0,  999.0,  999.0,  999.0,  999.0,  999.0,  999.0,  999.0,  999.0,  999.0,  999.0,  999.0
2010/01/26 05:00,  999.0,    4.6,    6.0,    6.0,    5.8,    6.2,    6.6,    7.1,    7.4,    7.5,    6.5,    5.9,    5.6,    4.4,    4.4,    3.0,    2.1,    2.6,    3.4,    4.0,    4.1,    4.3,    4.4,    4.6,    4.6,    5.6,    5.6,    5.8,    5.7,    6.1,    6.2,    6.9,    7.5,    7.2,    6.5,    6.3,    5.9,    6.0,    6.5,    7.5,    9.1,    8.5,    6.5,    5.8,    5.4,    4.4,    4.6,    4.9,    4.9,    4.7,    4.6,    4.2,    3.8,    3.9,    3.7,    3.7,    4.2,    4.5,    4.9,    5.3,    5.6,    7.1,    7.8,    7.8,    7.2,    5.6,    4.7,    3.8,    2.9,    3.5,    4.7,    4.5,    4.5,    4.3,    3.8,    3.6,    3.7,    4.0,    4.2,    4.3,  999.0,  999.0,  999.0,  999.0,  999.0,  999.0,  999.0,  999.0,  999.0,  999.0,  999.0,  999.0,  999.0,  999.0,  999.0,  999.0,  999.0,  999.0
2010/01/26 05:10,  999.0,    4.5,    4.1,    5.6,    6.5,    5.4,    5.3,    4.7,    4.1,    4.3,    5.2,    5.4,    5.1,    5.4,    6.1,    6.0,    6.0,    4.9,    4.5,    1.3,    1.1,    2.0,    2.4,    3.6,    4.1,    4.3,    4.3,    8.0,    7.9,    7.9,    8.3,    3.2,    0.3,   -1.8,   -2.2,   -0.4,   -0.1,   -0.6,   -1.2,   -1.3,   -0.9,    0.6,    1.6,    3.2,    3.6,    2.8,    2.6,    2.6,    2.6,    5.7,    5.6,    4.5,    4.3,    5.2,    5.4,    4.9,    5.4,    6.2,    5.9,    5.0,    3.8,    4.0,    3.1,    2.5,    1.9,    0.8,    1.0,    1.6,    2.2,    3.0,    3.1,    3.1,    2.9,    3.0,    3.5,    3.4,    3.1,    2.5,    2.0,    2.6,  999.0,  999.0,  999.0,  999.0,  999.0,  999.0,  999.0,  999.0,  999.0,  999.0,  999.0,  999.0,  999.0,  999.0,  999.0,  999.0,  999.0,  999.0
2010/01/26 05:20,    2.7,    1.5,    3.1,    4.8,    6.0,    6.7,    7.8,    7.4,    7.9,    8.2,    8.5,    7.6,    7.9,    7.3,    7.3,    7.3,    6.7,    5.0,    6.6,    7.6,    6.9,    6.4,    9.1,    9.7,    7.9,    7.7,    7.0,    5.6,    3.9,    1.1,   -0.8,   -0.7,    2.5,   -0.6,    3.6,    4.6,   -3.8,    3.5,   -1.2,  999.0,    0.6,   -0.5,    4.0,    5.6,    7.6,    7.1,    6.4,    6.0,    5.6,    5.2,    5.7,    6.2,    5.7,    5.9,    5.9,    5.9,    6.8,    7.4,    8.1,    8.1,    6.4,    6.8,  999.0,  999.0,    7.5,    7.7,    5.0,    2.9,    3.9,    3.4,    4.0,    4.2,    4.1,    3.9,    2.5,    1.8,    1.4,    1.1,    1.1,  999.0,  999.0,  999.0,  999.0,  999.0,  999.0,  999.0,  999.0,  999.0,  999.0,  999.0,  999.0,  999.0,  999.0,  999.0,  999.0,  999.0,  999.0,  999.0
2010/01/26 05:30,   11.5,    1.8,    4.1,   -0.2,    3.2,    5.5,    4.7,    5.3,    5.7,    5.8,    5.6,    5.8,    5.8,    5.6,    5.4,    5.9,  999.0,  999.0,  999.0,    8.4,    8.1,    6.8,    6.4,    5.4,    5.0,    4.8,    5.0,    4.7,    5.0,    5.0,    5.5,    6.6,    6.2,    6.8,    6.0,    6.3,  999.0,    4.6,  999.0,  999.0,    4.5,    3.4,  999.0,  999.0,  999.0,  999.0,    3.7,    3.9,  999.0,  999.0,    2.0,    1.6,    1.1,    1.6,    1.8,    1.9,    2.4,    2.5,    3.1,    3.0,    2.8,    3.0,    3.0,    2.6,    3.6,    4.7,    5.7,  999.0,  999.0,  999.0,  999.0,  999.0,  999.0,  999.0,  999.0,  999.0,  999.0,  999.0,  999.0,  999.0,  999.0,  999.0,  999.0,  999.0,  999.0,  999.0,  999.0,  999.0,  999.0,  999.0,  999.0,  999.0,  999.0,  999.0,  999.0,  999.0,  999.0,  999.0
2010/01/26 05:40,  999.0,  999.0,   -0.6,   -0.5,    1.9,    6.8,    7.1,    8.6,    8.2,    5.8,    8.0,    8.0,    5.1,    7.8,    8.1,    5.1,    7.1,    4.8,    4.8,    4.5,    4.9,    4.6,    4.9,    4.8,    4.9,    4.8,    5.1,    5.3,    5.6,    5.5,    5.5,    5.1,    5.2,    5.8,    5.5,    5.8,    5.9,    5.4,    6.3,    5.9,    5.3,    5.0,    4.6,    4.7,    5.3,    4.5,    4.5,  999.0,    3.4,    3.5,    3.6,    3.2,    3.1,    3.5,    3.2,    3.4,    3.3,    3.8,    4.6,    4.1,  999.0,  999.0,  999.0,    3.0,    3.0,  999.0,  999.0,  999.0,  999.0,  999.0,  999.0,  999.0,  999.0,  999.0,  999.0,  999.0,  999.0,  999.0,  999.0,  999.0,  999.0,  999.0,  999.0,   -0.5,   -1.3,   -1.2,   -1.2,   -1.1,   -1.2,   -1.1,   -1.1,   -1.3,   -1.5,   -1.6,   -1.4,   -2.0,   -2.5,   -2.8
2010/01/26 05:50,  999.0,  999.0,   -4.0,   -1.7,   -0.8,   -0.3,   -0.2,    3.7,   -0.1,   -4.3,    0.7,    7.6,    5.1,    4.5,    5.2,    5.0,    3.6,    4.0,    4.5,    4.9,    4.2,    4.3,    4.0,    4.0,    4.1,    3.9,    4.4,    4.9,    5.1,    5.1,    6.1,    5.9,    5.2,    5.1,    5.1,    4.7,    4.9,    5.0,    5.4,    5.7,    5.8,    4.9,  999.0,  999.0,  999.0,  999.0,  999.0,    4.2,  999.0,  999.0,  999.0,  999.0,    1.4,    1.5,    1.6,  999.0,  999.0,  999.0,  999.0,  999.0,  999.0,  999.0,  999.0,  999.0,  999.0,  999.0,  999.0,  999.0,  999.0,  999.0,  999.0,  999.0,  999.0,  999.0,  999.0,  999.0,  999.0,  999.0,  999.0,   -1.3,   -1.5,   -1.5,   -1.2,   -1.0,   -1.0,   -1.0,   -1.1,   -0.8,   -0.5,   -0.5,   -0.9,   -1.5,   -1.7,   -2.0,   -1.6,   -1.5,   -1.7,   -1.9
2010/01/26 06:00,  999.0,  999.0,  999.0,   -1.2,   -2.8,   -0.2,    0.3,    0.3,    2.0,    3.3,    5.2,    5.0,    4.5,    4.9,    3.6,    2.7,    3.7,    4.6,    4.4,    4.8,    5.1,    4.4,    4.1,    3.8,    4.5,    5.3,    5.9,    6.3,    6.4,    6.7,    6.8,    6.4,    7.2,    4.8,    4.8,    5.0,    4.9,    5.1,    5.9,    6.3,    5.5,  999.0,  999.0,  999.0,    4.7,    4.8,    4.8,    4.8,    5.3,    5.1,    3.3,    3.4,    3.2,    2.3,    1.9,  999.0,  999.0,  999.0,  999.0,  999.0,  999.0,  999.0,  999.0,  999.0,  999.0,  999.0,  999.0,  999.0,  999.0,  999.0,  999.0,  999.0,    0.7,  999.0,    2.4,    1.5,    1.8,    1.7,    0.9,    0.5,   -0.1,   -0.6,   -0.8,   -0.9,   -0.7,   -0.6,   -0.7,   -0.4,    0.1,    0.1,   -0.2,   -1.0,   -1.4,   -1.7,   -1.7,   -1.7,   -1.5,   -1.5
2010/01/26 06:10,  999.0,  999.0,  999.0,  999.0,  999.0,  999.0,  999.0,    1.2,    0.4,   -0.4,    0.8,    2.5,    3.1,    4.3,    3.1,    3.7,    3.6,    2.8,    2.4,    3.3,    2.8,    2.8,    2.7,    3.5,    3.9,    4.5,    5.3,    5.5,    6.3,    6.8,    5.2,    5.4,    5.7,  999.0,  999.0,  999.0,    4.4,  999.0,    3.6,  999.0,  999.0,  999.0,  999.0,  999.0,  999.0,  999.0,  999.0,  999.0,  999.0,    5.4,    3.8,    3.7,    4.2,  999.0,  999.0,  999.0,  999.0,  999.0,  999.0,  999.0,  999.0,  999.0,  999.0,  999.0,  999.0,  999.0,  999.0,  999.0,  999.0,  999.0,  999.0,  999.0,  999.0,    1.2,    1.3,    2.1,    1.9,    1.5,    0.8,    0.3,    0.1,    0.1,    0.2,    0.2,    0.1,   -0.0,   -0.4,   -0.6,   -0.4,   -0.5,   -1.1,   -1.5,   -1.7,   -1.7,   -1.2,   -1.1,   -1.2,   -1.4
2010/01/26 06:20,  999.0,  999.0,  999.0,  999.0,  999.0,  999.0,  999.0,    0.2,    1.3,    1.5,    2.4,    3.3,    2.8,    2.8,    3.9,    2.9,    2.8,    3.0,    2.6,    3.2,    3.5,    3.7,    4.2,    4.9,    4.0,    4.3,  999.0,  999.0,  999.0,    6.5,    5.9,    5.7,  999.0,  999.0,  999.0,  999.0,  999.0,  999.0,  999.0,  999.0,  999.0,  999.0,  999.0,  999.0,  999.0,  999.0,  999.0,  999.0,  999.0,  999.0,    3.7,  999.0,  999.0,  999.0,  999.0,  999.0,  999.0,  999.0,  999.0,  999.0,  999.0,  999.0,  999.0,  999.0,  999.0,  999.0,  999.0,  999.0,  999.0,  999.0,  999.0,  999.0,  999.0,  999.0,    1.0,    1.0,    1.5,    1.3,    0.5,   -0.1,   -0.3,   -0.3,    0.0,    0.2,    0.2,   -0.2,   -0.3,   -0.1,    0.1,    0.2,   -0.3,   -1.3,   -1.7,   -1.9,   -1.6,   -1.4,   -1.5,   -1.3
2010/01/26 06:30,   -0.5,  999.0,  999.0,  999.0,  999.0,  999.0,  999.0,   -0.8,   -0.5,    0.3,    3.1,    4.9,    4.7,    4.4,    4.1,    4.0,    4.5,    3.8,    3.9,    3.7,    3.1,    3.2,    3.8,    3.5,    3.1,    3.2,    4.3,  999.0,    4.4,    4.4,    4.9,    5.1,  999.0,  999.0,  999.0,  999.0,    4.5,    5.0,  999.0,  999.0,  999.0,  999.0,  999.0,  999.0,  999.0,  999.0,  999.0,  999.0,  999.0,    3.3,    2.8,  999.0,  999.0,  999.0,  999.0,  999.0,  999.0,  999.0,  999.0,  999.0,  999.0,  999.0,  999.0,  999.0,  999.0,  999.0,  999.0,  999.0,  999.0,  999.0,  999.0,  999.0,    1.5,    1.6,    0.9,    0.6,    1.2,    1.4,    0.8,    0.2,   -0.1,   -0.4,   -0.3,   -0.3,   -0.3,   -0.5,   -0.6,   -0.5,   -0.4,   -0.6,   -1.5,   -2.3,   -2.6,   -2.1,   -1.8,   -1.8,   -2.0,   -1.8
2010/01/26 06:40,   -0.3,   -0.5,   -0.2,   -0.9,   -1.4,   -1.1,   -0.1,  999.0,  999.0,  999.0,    4.1,    3.9,    4.2,    4.7,    3.9,    3.8,    3.7,    4.1,    4.4,    4.2,    3.5,    2.9,    2.8,    3.0,    3.2,    3.1,    2.6,    3.3,    3.4,    3.1,    4.0,    4.1,    3.3,    3.5,  999.0,    3.4,    3.8,    4.6,  999.0,    4.1,  999.0,  999.0,  999.0,  999.0,  999.0,  999.0,  999.0,  999.0,    4.7,    4.3,  999.0,  999.0,  999.0,  999.0,  999.0,  999.0,  999.0,  999.0,  999.0,  999.0,  999.0,  999.0,  999.0,  999.0,  999.0,  999.0,  999.0,  999.0,  999.0,  999.0,  999.0,  999.0,    2.7,    2.9,    2.6,    2.0,    1.3,    1.5,    1.6,    1.3,    0.6,    0.3,    0.2,    0.1,    0.4,    0.5,    0.5,    0.3,    0.4,    0.1,   -0.9,   -1.6,   -1.7,   -1.8,   -1.6,   -1.7,   -1.6,   -1.7
2010/01/26 06:50,   -0.7,    0.2,   -0.2,  999.0,  999.0,  999.0,  999.0,    4.6,    3.5,    2.7,    4.4,    4.5,    4.9,    4.4,    3.7,    4.0,    4.5,    4.8,    4.3,    3.8,    3.1,    3.2,    4.0,  999.0,    3.7,    4.4,    3.8,    5.8,  999.0,    4.9,    4.5,    4.9,    4.4,    4.7,  999.0,  999.0,    4.5,  999.0,  999.0,    3.7,    4.3,    4.2,  999.0,  999.0,  999.0,  999.0,  999.0,  999.0,    3.1,    2.7,  999.0,  999.0,  999.0,  999.0,  999.0,  999.0,  999.0,  999.0,  999.0,  999.0,  999.0,  999.0,  999.0,  999.0,  999.0,  999.0,  999.0,  999.0,  999.0,  999.0,  999.0,  999.0,    1.5,    1.7,    2.2,    2.0,    1.5,    1.1,    1.3,    1.1,    0.6,   -0.0,   -0.1,    0.1,    0.1,    0.2,    0.6,   -0.1,  999.0,  999.0,  999.0,  999.0,  999.0,   -2.2,   -2.2,   -1.3,   -1.9,   -2.2
2010/01/26 07:00,   -1.0,    1.2,   -0.4,  999.0,  999.0,  999.0,  999.0,  999.0,  999.0,  999.0,   10.7,    7.4,    9.0,    6.9,    4.9,    5.4,    6.3,    5.0,    5.6,    4.3,    4.6,    4.5,    4.1,    4.1,    3.7,    3.9,    4.7,    4.9,    4.9,    3.9,  999.0,    3.8,    3.8,    3.6,  999.0,  999.0,  999.0,  999.0,  999.0,  999.0,  999.0,  999.0,  999.0,  999.0,  999.0,  999.0,  999.0,    2.9,    3.2,    4.0,  999.0,  999.0,  999.0,  999.0,  999.0,  999.0,  999.0,  999.0,  999.0,  999.0,  999.0,  999.0,  999.0,  999.0,  999.0,  999.0,  999.0,  999.0,  999.0,  999.0,  999.0,  999.0,  999.0,    1.9,    2.0,    1.9,    1.5,    1.1,    1.1,    0.9,    0.0,   -0.9,   -0.6,   -0.8,  999.0,  999.0,  999.0,  999.0,  999.0,  999.0,  999.0,  999.0,  999.0,   -1.3,   -1.2,   -1.1,   -1.3,   -1.5
2010/01/26 07:10,   -0.8,  999.0,    0.8,    4.3,  999.0,  999.0,  999.0,  999.0,   15.9,   15.5,  999.0,   15.7,    9.4,   10.2,    1.7,    4.0,    3.7,    3.3,    3.6,    4.1,    4.0,    3.7,    3.8,    3.2,    2.9,    3.4,    4.2,    4.7,    3.6,    3.4,    3.2,    3.2,    3.4,    3.3,  999.0,  999.0,    2.6,  999.0,  999.0,  999.0,  999.0,  999.0,  999.0,  999.0,  999.0,  999.0,    2.8,    3.2,    3.6,  999.0,  999.0,  999.0,  999.0,  999.0,  999.0,  999.0,  999.0,  999.0,  999.0,  999.0,  999.0,  999.0,  999.0,  999.0,  999.0,  999.0,  999.0,  999.0,    2.5,  999.0,  999.0,  999.0,  999.0,  999.0,    2.4,    1.3,    1.6,    1.8,    1.0,  999.0,  999.0,  999.0,  999.0,  999.0,  999.0,  999.0,  999.0,  999.0,  999.0,  999.0,  999.0,   -1.5,   -1.4,   -1.8,   -1.9,   -2.1,   -2.4,   -2.6
2010/01/26 07:20,   -2.0,   -1.1,   -1.2,    0.3,  999.0,  999.0,  999.0,  999.0,    1.9,    3.9,    4.1,    4.4,    4.5,    4.3,    3.4,    3.2,    3.3,    3.7,    3.8,    4.5,    3.9,    3.9,    4.3,    5.0,    5.1,    4.6,    4.6,    4.5,    4.1,    3.5,    2.8,    3.2,    3.8,  999.0,  999.0,  999.0,  999.0,    3.5,  999.0,  999.0,  999.0,  999.0,  999.0,  999.0,  999.0,  999.0,    3.0,  999.0,    4.0,  999.0,  999.0,  999.0,  999.0,  999.0,    3.0,  999.0,  999.0,  999.0,  999.0,  999.0,  999.0,  999.0,  999.0,  999.0,  999.0,  999.0,  999.0,  999.0,  999.0,  999.0,  999.0,  999.0,  999.0,  999.0,  999.0,  999.0,  999.0,  999.0,  999.0,  999.0,  999.0,  999.0,  999.0,  999.0,  999.0,  999.0,  999.0,   -1.3,   -1.6,   -2.5,   -2.4,   -2.5,   -2.3,   -2.3,   -2.3,   -2.5,   -2.8,   -2.8
2010/01/26 07:30,   -1.2,    0.2,    0.0,  999.0,  999.0,  999.0,  999.0,    1.7,  999.0,  999.0,    4.1,    4.0,    0.5,    3.6,    3.0,    3.0,    3.6,    4.9,    4.9,    4.7,    5.0,    4.5,    4.6,    4.2,  999.0,    4.5,    4.1,    4.3,    3.9,    3.5,    3.2,    2.8,  999.0,  999.0,  999.0,  999.0,  999.0,  999.0,  999.0,  999.0,  999.0,  999.0,  999.0,  999.0,  999.0,  999.0,  999.0,  999.0,  999.0,  999.0,  999.0,  999.0,  999.0,  999.0,  999.0,  999.0,  999.0,  999.0,  999.0,  999.0,  999.0,  999.0,  999.0,  999.0,  999.0,  999.0,  999.0,  999.0,  999.0,  999.0,  999.0,  999.0,  999.0,  999.0,  999.0,  999.0,  999.0,  999.0,  999.0,  999.0,  999.0,  999.0,  999.0,  999.0,  999.0,   -0.8,   -0.6,   -0.4,   -0.7,   -1.4,   -1.9,   -2.2,   -2.5,   -2.5,   -2.7,   -3.0,   -3.1,   -3.0
2010/01/26 07:40,   -0.3,  999.0,   -1.3,  999.0,  999.0,  999.0,  999.0,  999.0,    3.3,    3.5,    4.3,    4.3,    4.2,    3.7,    3.2,    3.2,    3.5,    4.1,    4.2,    4.3,    4.3,    4.3,    4.1,    4.9,    4.7,    5.0,    5.3,    4.8,    3.9,    3.6,    3.0,    2.5,    2.7,  999.0,  999.0,  999.0,  999.0,  999.0,  999.0,  999.0,    2.0,  999.0,  999.0,  999.0,  999.0,  999.0,  999.0,  999.0,  999.0,  999.0,  999.0,  999.0,  999.0,  999.0,  999.0,  999.0,  999.0,  999.0,  999.0,  999.0,  999.0,  999.0,  999.0,  999.0,  999.0,  999.0,  999.0,  999.0,  999.0,  999.0,  999.0,  999.0,  999.0,  999.0,  999.0,  999.0,  999.0,    1.7,    1.8,    1.1,    0.7,    0.3,    0.4,    0.6,    0.4,   -0.0,   -0.0,    0.1,    0.1,   -0.3,   -0.8,   -1.5,   -1.8,   -2.0,   -2.3,   -2.7,   -3.1,   -3.2
2010/01/26 07:50,   -0.7,  999.0,  999.0,  999.0,   15.8,  999.0,  999.0,   12.6,   16.2,    6.8,   11.1,    8.2,    8.4,  999.0,  999.0,    3.3,    3.9,  999.0,  999.0,  999.0,    3.3,    4.0,    4.8,    5.0,    4.8,    5.3,    5.8,    6.0,  999.0,    3.9,    3.4,    3.0,    3.4,    3.4,  999.0,  999.0,  999.0,    2.4,    2.7,  999.0,  999.0,  999.0,  999.0,  999.0,  999.0,  999.0,  999.0,  999.0,  999.0,  999.0,  999.0,  999.0,  999.0,  999.0,  999.0,  999.0,  999.0,  999.0,  999.0,  999.0,  999.0,  999.0,  999.0,  999.0,  999.0,  999.0,  999.0,  999.0,  999.0,  999.0,  999.0,  999.0,  999.0,  999.0,  999.0,    3.2,    2.7,    2.4,    1.7,    0.8,   -0.1,   -0.3,   -0.3,   -0.2,   -0.0,   -0.5,   -0.9,   -1.0,   -0.9,   -0.8,   -1.1,   -1.6,   -2.3,   -2.9,   -3.5,   -4.0,   -4.1,   -3.9
2010/01/26 08:00,   -1.0,    1.1,  999.0,   15.1,    9.5,    9.0,   11.2,   10.9,   11.9,   11.5,    9.5,   10.0,  999.0,  999.0,  999.0,    4.2,  999.0,  999.0,  999.0,  999.0,    3.4,    4.2,    4.7,    4.3,    5.3,    6.1,    6.8,  999.0,    4.9,    4.4,    4.0,    3.5,    3.6,    3.5,    2.0,    2.6,  999.0,  999.0,  999.0,  999.0,  999.0,  999.0,  999.0,  999.0,  999.0,  999.0,  999.0,  999.0,  999.0,  999.0,  999.0,  999.0,  999.0,  999.0,  999.0,  999.0,    4.4,    5.0,    4.7,  999.0,  999.0,  999.0,  999.0,  999.0,  999.0,  999.0,  999.0,  999.0,  999.0,  999.0,  999.0,  999.0,  999.0,    3.3,    3.0,    2.6,    2.0,    1.9,    1.8,    0.8,   -0.4,   -1.0,   -0.8,   -0.4,   -0.1,   -0.2,   -0.7,   -1.0,   -0.9,   -0.9,   -1.2,   -1.4,   -1.7,   -2.2,   -2.8,   -3.2,   -3.3,   -2.8
2010/01/26 08:10,   -0.1,    1.3,  999.0,   -1.3,   -1.3,    0.6,  999.0,  999.0,  999.0,  999.0,  999.0,  999.0,    2.9,    3.2,  999.0,    4.0,  999.0,    3.7,    4.0,  999.0,  999.0,    3.9,    4.0,    4.5,    4.4,    3.8,    3.8,  999.0,  999.0,    4.3,    3.9,    3.7,    2.8,    2.3,    2.6,    2.8,  999.0,    1.8,    2.1,  999.0,  999.0,  999.0,  999.0,  999.0,  999.0,  999.0,  999.0,    2.8,    3.4,  999.0,  999.0,  999.0,  999.0,  999.0,  999.0,    4.4,    4.3,    4.4,    4.6,  999.0,  999.0,  999.0,  999.0,  999.0,  999.0,  999.0,  999.0,  999.0,  999.0,  999.0,  999.0,  999.0,    3.5,    3.5,    3.0,    2.6,    2.0,    2.0,    2.0,    1.5,    0.3,   -0.4,   -0.8,   -0.7,   -0.4,   -0.1,   -0.2,   -0.6,   -0.9,   -0.9,   -0.9,   -1.1,   -1.3,   -1.8,   -2.5,   -3.0,   -3.2,   -2.7
2010/01/26 08:20,   -0.3,   -0.2,    0.3,   -1.0,   -1.2,   -0.8,  999.0,  999.0,  999.0,  999.0,  999.0,  999.0,  999.0,  999.0,  999.0,    3.3,    4.2,    4.4,  999.0,    4.4,    4.3,  999.0,    3.3,    3.8,    4.0,    3.8,    5.0,    5.8,    5.4,  999.0,    5.4,    4.2,    4.3,    3.4,    3.9,    4.1,  999.0,    3.6,  999.0,  999.0,  999.0,  999.0,  999.0,  999.0,  999.0,  999.0,    2.6,    3.1,  999.0,  999.0,  999.0,  999.0,  999.0,  999.0,  999.0,  999.0,  999.0,  999.0,  999.0,  999.0,  999.0,  999.0,  999.0,  999.0,  999.0,  999.0,  999.0,  999.0,  999.0,  999.0,  999.0,    2.7,    3.3,    3.2,    2.5,    2.0,    1.2,    1.0,    1.4,    1.6,    1.1,    0.5,   -0.0,   -0.2,   -0.0,    0.1,    0.3,    0.1,   -0.5,   -0.7,   -0.5,   -0.6,   -0.7,   -0.7,   -1.3,   -1.8,   -1.8,   -1.6
2010/01/26 08:30,   -0.6,   -0.6,   -0.3,   -1.1,  999.0,  -15.2,  -10.1,  999.0,   -9.9,  999.0,   -7.7,   -7.5,   -5.6,  999.0,    0.2,  999.0,  999.0,  999.0,    4.4,  999.0,  999.0,  999.0,    3.3,    3.5,    3.9,    4.0,    4.7,    5.5,  999.0,  999.0,  999.0,    4.8,    4.7,    4.4,    3.7,    3.9,    4.4,  999.0,  999.0,  999.0,    3.3,  999.0,  999.0,  999.0,  999.0,  999.0,  999.0,    2.5,  999.0,  999.0,  999.0,  999.0,  999.0,  999.0,  999.0,  999.0,  999.0,  999.0,  999.0,  999.0,  999.0,  999.0,  999.0,  999.0,  999.0,  999.0,  999.0,  999.0,  999.0,  999.0,  999.0,    3.5,    4.1,    4.0,    3.1,    2.0,    1.0,    0.7,    0.9,    1.1,    0.9,    0.2,   -0.6,   -0.7,   -0.7,   -0.3,    0.1,    0.0,   -0.8,   -1.1,   -1.2,   -1.1,   -1.0,   -1.1,   -1.3,   -1.7,   -2.0,   -2.0
2010/01/26 08:40,   -0.5,   -0.2,   -0.5,   -1.2,   -1.0,  999.0,  999.0,  999.0,   -1.1,   -1.2,  999.0,  999.0,    2.6,    2.9,  999.0,  999.0,    2.8,  999.0,    4.5,    3.9,  999.0,    3.0,    2.9,    2.8,    2.8,    3.3,    4.2,    4.7,    4.7,    5.3,    5.6,    5.0,    4.6,    4.3,    4.3,    4.3,    3.3,    3.1,    3.2,  999.0,    2.3,    2.3,  999.0,  999.0,  999.0,  999.0,  999.0,  999.0,  999.0,  999.0,  999.0,  999.0,  999.0,  999.0,  999.0,  999.0,  999.0,  999.0,  999.0,  999.0,  999.0,  999.0,  999.0,  999.0,  999.0,  999.0,  999.0,  999.0,  999.0,  999.0,    5.0,    4.5,    4.0,    3.8,    3.1,    2.3,    1.3,    1.0,    1.1,    1.3,    1.0,    0.3,   -0.3,   -0.3,   -0.1,    0.3,    0.4,    0.0,   -0.7,   -0.8,   -0.5,   -0.4,   -0.7,   -0.9,   -1.3,   -1.9,   -1.9,   -1.4
2010/01/26 08:50,   -0.7,   -0.3,   -1.0,   -1.1,   -0.7,  999.0,  999.0,  999.0,   -1.3,   -1.9,    1.6,    3.2,    2.9,    2.3,    2.4,  999.0,    1.6,    3.0,    3.0,    3.6,    2.9,    2.7,    3.4,    3.3,  999.0,    3.6,    4.8,    4.6,    4.7,    4.9,    5.6,    5.1,    4.7,    4.5,    4.8,    4.3,    3.3,    3.2,    3.3,    4.0,    2.3,  999.0,  999.0,  999.0,  999.0,  999.0,  999.0,    2.2,  999.0,  999.0,  999.0,  999.0,  999.0,  999.0,  999.0,  999.0,  999.0,  999.0,  999.0,  999.0,  999.0,  999.0,  999.0,  999.0,  999.0,  999.0,  999.0,  999.0,  999.0,  999.0,    4.1,    4.0,    3.3,    3.2,    2.5,    1.7,    0.9,    0.8,    1.1,    1.2,    0.8,   -0.0,   -0.3,   -0.1,    0.3,    0.4,    0.3,   -0.4,   -0.8,   -0.9,   -0.7,   -0.6,   -0.9,   -1.3,   -1.6,   -2.1,   -2.4,   -2.2
2010/01/26 09:00,   -0.9,   -0.2,   -0.7,   -0.7,  999.0,  999.0,   -1.0,   -1.8,   -1.1,   -1.2,    1.5,    3.3,   -8.6,   -5.7,   -3.7,    3.0,  999.0,  999.0,  999.0,  999.0,    5.0,    4.4,    3.4,    3.1,  999.0,    3.3,    4.0,    3.7,    4.1,    4.7,    5.5,    5.5,    4.9,    4.3,    4.0,    4.4,    2.7,    3.1,    3.3,  999.0,    1.9,  999.0,  999.0,  999.0,  999.0,  999.0,  999.0,    2.4,    3.3,  999.0,  999.0,  999.0,  999.0,  999.0,  999.0,  999.0,  999.0,  999.0,  999.0,  999.0,  999.0,  999.0,  999.0,  999.0,  999.0,  999.0,  999.0,  999.0,  999.0,  999.0,    5.4,    4.7,    3.9,    3.6,    2.7,    1.6,    0.8,    0.7,    0.8,    1.0,    0.5,    0.0,   -0.2,    0.3,    0.3,    0.3,    0.3,   -0.3,   -0.6,   -0.8,   -0.7,   -0.8,   -0.8,   -0.9,   -1.1,   -1.7,   -2.2,   -2.2
2010/01/26 09:10,   -0.3,    0.9,   -0.1,   -0.1,   -0.6,  999.0,  999.0,  999.0,   -0.4,   -1.4,  999.0,    3.6,  999.0,  999.0,    3.6,    3.5,    3.4,  999.0,  999.0,    4.4,    4.8,    4.1,    3.9,    3.3,  999.0,    3.1,    3.0,    3.9,    3.7,    4.0,    5.1,    5.2,    5.0,    4.6,    3.9,    4.3,    4.5,  999.0,    2.7,  999.0,    1.5,  999.0,  999.0,  999.0,  999.0,  999.0,  999.0,  999.0,  999.0,  999.0,  999.0,  999.0,  999.0,  999.0,  999.0,    4.6,  999.0,  999.0,  999.0,  999.0,  999.0,  999.0,  999.0,  999.0,  999.0,  999.0,  999.0,  999.0,  999.0,  999.0,  999.0,  999.0,    2.8,    2.6,    1.6,    0.4,   -0.1,    0.2,    0.6,    0.7,    0.5,    0.1,    0.1,    0.3,    0.5,    0.6,    0.4,    0.1,   -0.2,   -0.1,   -0.4,   -0.4,   -0.5,   -0.4,   -1.0,   -1.4,   -1.9,   -2.1
2010/01/26 09:20,   -0.6,  999.0,    1.7,    0.9,    1.4,  999.0,  999.0,  999.0,  999.0,    3.7,    0.3,    1.8,    0.5,  999.0,    3.5,    3.5,    3.6,    3.6,    3.9,  999.0,    4.9,    4.4,    4.4,    4.4,    3.1,    3.1,  999.0,  999.0,    3.8,    3.4,    4.4,  999.0,  999.0,    4.2,    3.8,    4.5,    4.1,    4.4,  999.0,    2.8,    1.9,    2.4,  999.0,  999.0,  999.0,  999.0,  999.0,  999.0,  999.0,  999.0,  999.0,  999.0,  999.0,  999.0,    3.2,    3.9,    4.7,  999.0,    3.6,  999.0,  999.0,  999.0,  999.0,  999.0,  999.0,  999.0,  999.0,  999.0,  999.0,  999.0,  999.0,  999.0,  999.0,  999.0,  999.0,    1.0,    0.7,    1.0,    1.5,    1.6,    0.8,    0.6,    0.5,    0.7,    1.0,    0.8,    0.9,    0.6,    0.3,   -0.1,   -0.1,   -0.3,   -0.5,   -0.8,   -0.8,   -0.7,   -1.0,   -1.5
2010/01/26 09:30,   -1.2,    1.4,    1.5,    0.6,    1.7,    2.8,    3.9,  999.0,    4.6,  999.0,    3.7,  999.0,    6.5,  999.0,  999.0,    4.9,    2.9,    3.5,    4.6,    4.8,    5.3,    5.0,    4.5,    3.2,    3.4,    3.3,    3.2,    3.9,    3.3,  999.0,    3.7,    3.8,    4.0,    3.9,    4.2,    3.5,    3.5,    4.2,    3.0,    2.7,    1.7,    2.2,  999.0,  999.0,  999.0,  999.0,  999.0,  999.0,  999.0,  999.0,  999.0,  999.0,  999.0,    3.0,  999.0,  999.0,    4.0,    4.7,  999.0,  999.0,  999.0,  999.0,  999.0,  999.0,  999.0,  999.0,  999.0,  999.0,  999.0,  999.0,  999.0,  999.0,  999.0,  999.0,  999.0,    0.8,    0.4,    0.7,    1.1,    1.3,    0.8,    0.5,    0.4,    0.5,    0.6,    0.5,    0.4,    0.2,   -0.3,   -0.6,   -0.7,   -0.9,   -1.2,   -1.3,   -1.5,   -1.6,   -1.6,   -2.0
2010/01/26 09:40,   -0.4,    1.1,    0.8,    0.7,    2.2,    4.1,    4.1,    3.0,    5.7,    1.6,    3.1,    2.2,    1.4,  999.0,    2.5,    2.7,    2.5,    2.8,    3.8,    4.4,    4.7,    4.7,    4.3,    3.6,    3.2,    3.0,    2.9,    2.8,    3.7,    4.1,    4.3,    4.3,    4.5,  999.0,    3.6,    3.3,    3.6,    3.9,  999.0,    2.8,    2.7,    2.4,  999.0,  999.0,  999.0,    1.9,    2.6,  999.0,  999.0,  999.0,  999.0,  999.0,  999.0,    3.1,    3.5,    3.0,    3.9,    4.6,  999.0,  999.0,  999.0,  999.0,  999.0,  999.0,  999.0,  999.0,  999.0,  999.0,  999.0,  999.0,  999.0,  999.0,  999.0,  999.0,  999.0,    0.9,    0.4,    0.8,    1.4,    1.5,    1.3,    0.9,    0.7,    0.6,    0.9,    1.1,    1.1,    0.9,    0.5,   -0.0,   -0.6,   -1.0,   -0.9,   -1.0,   -1.0,   -1.4,   -1.5,   -1.6
2010/01/26 09:50,   -0.5,    1.2,    1.2,    1.4,    3.0,    3.9,    3.3,    2.9,    0.3,    1.4,    3.5,    1.8,    1.5,    2.4,    2.2,    2.2,    2.3,    2.6,    3.6,    4.2,    4.7,    5.4,    4.7,    4.0,    3.3,    3.4,    3.8,    3.0,    3.6,  999.0,    3.8,    4.5,  999.0,  999.0,    4.0,    3.5,    3.7,    3.6,  999.0,  999.0,    2.8,    3.3,  999.0,  999.0,  999.0,  999.0,    1.5,    1.8,  999.0,  999.0,  999.0,  999.0,    1.7,    2.3,    2.7,  999.0,  999.0,  999.0,  999.0,  999.0,  999.0,  999.0,  999.0,  999.0,  999.0,  999.0,  999.0,  999.0,  999.0,  999.0,  999.0,  999.0,  999.0,  999.0,  999.0,    1.3,    0.5,    0.5,    1.2,    1.6,    1.4,    1.1,    0.9,    0.5,    0.5,    0.6,    0.7,    0.8,    0.8,    0.2,   -0.4,   -0.7,   -0.8,   -1.0,   -1.2,   -1.6,   -1.9,   -2.2
2010/01/26 10:00,    0.2,    1.4,    1.4,    0.4,    2.1,    3.7,    3.6,    4.0,    3.6,    3.5,    3.3,    2.4,    2.7,    2.4,    1.9,    1.7,    1.3,    1.8,    3.0,    3.5,    4.3,    4.5,    4.8,    4.1,    3.8,    3.3,    3.5,    3.2,    3.6,    3.6,    3.7,    4.3,    4.5,    3.9,    4.2,    3.5,    3.6,    4.0,  999.0,  999.0,    3.2,    4.1,  999.0,  999.0,  999.0,  999.0,  999.0,    2.7,    3.4,  999.0,  999.0,  999.0,    3.1,    3.2,    4.2,  999.0,  999.0,  999.0,  999.0,  999.0,  999.0,  999.0,  999.0,  999.0,  999.0,  999.0,  999.0,  999.0,  999.0,  999.0,  999.0,  999.0,  999.0,  999.0,    2.3,    1.6,    1.0,    0.9,    1.5,    2.1,    2.0,    1.7,    1.1,    0.9,    0.8,    0.9,    1.0,    1.1,    1.2,    0.8,    0.0,   -0.4,   -0.5,   -0.7,   -1.1,   -1.7,   -2.0,   -2.4
2010/01/26 10:10,   -0.2,    1.4,    1.4,    1.3,    1.8,    4.4,    3.3,    4.1,    0.1,   -0.9,    3.3,    2.0,    1.8,    1.7,    1.3,    1.9,    1.7,    2.0,    3.3,    3.6,    4.4,    5.3,    5.2,    4.2,    3.9,    3.5,    3.4,    3.3,    3.5,    3.9,    3.4,  999.0,    4.2,    3.9,  999.0,    2.9,    3.5,    3.4,  999.0,  999.0,    3.2,    3.3,  999.0,  999.0,  999.0,  999.0,  999.0,    2.2,    2.8,  999.0,  999.0,  999.0,    2.4,    2.8,    3.1,    3.5,  999.0,  999.0,  999.0,  999.0,  999.0,  999.0,  999.0,  999.0,  999.0,  999.0,  999.0,  999.0,  999.0,  999.0,  999.0,  999.0,  999.0,  999.0,    2.2,    2.1,    1.3,    1.4,    1.8,    2.3,    2.3,    1.8,    1.3,    0.7,    0.6,    0.7,    0.8,    0.7,    0.6,    0.3,   -0.4,   -0.8,   -1.2,   -1.5,   -1.8,   -2.1,   -2.5,   -2.5
2010/01/26 10:20,   -0.5,    1.6,    1.5,    0.3,    1.3,    5.7,    4.1,    5.3,  999.0,   -0.7,    3.5,    2.9,    1.9,    1.8,    2.1,    2.2,    1.6,    1.8,    2.3,  999.0,  999.0,    4.5,  999.0,    4.9,    4.2,    3.7,    4.3,    3.9,    3.8,    4.3,    4.4,  999.0,  999.0,    3.1,    3.7,    3.5,    3.0,    3.6,  999.0,  999.0,    2.8,    3.6,    3.3,  999.0,  999.0,  999.0,  999.0,  999.0,  999.0,  999.0,  999.0,  999.0,    1.9,    2.0,    2.5,    3.3,  999.0,  999.0,  999.0,  999.0,  999.0,  999.0,  999.0,  999.0,  999.0,  999.0,  999.0,  999.0,  999.0,  999.0,  999.0,  999.0,  999.0,    2.7,    2.0,    1.6,    1.3,    1.1,    1.2,    1.3,    1.0,    0.8,    0.2,   -0.2,   -0.0,    0.2,    0.4,    0.4,    0.4,    0.1,   -0.1,   -0.6,   -0.9,   -1.4,   -1.6,   -2.0,   -2.2,   -2.3
2010/01/26 10:30,   -0.6,    1.4,    1.6,   -0.5,    1.0,    5.1,    2.1,  999.0,   -0.3,    0.5,    2.8,    2.8,    2.1,    1.9,    2.4,    2.3,    2.1,    2.3,    3.2,    4.1,  999.0,  999.0,  999.0,  999.0,  999.0,    3.6,    4.3,    4.0,    3.3,  999.0,    3.8,  999.0,    4.4,    4.1,    3.6,    3.7,    3.2,    2.8,    3.1,  999.0,    2.3,    2.5,    2.4,  999.0,  999.0,  999.0,  999.0,  999.0,  999.0,  999.0,  999.0,  999.0,  999.0,    3.1,  999.0,  999.0,  999.0,  999.0,  999.0,  999.0,  999.0,  999.0,  999.0,  999.0,  999.0,  999.0,  999.0,  999.0,  999.0,  999.0,  999.0,  999.0,  999.0,  999.0,  999.0,  999.0,   -0.0,    0.2,    0.5,    0.5,    0.3,   -0.6,   -0.8,   -0.5,   -0.1,    0.0,    0.3,    0.2,    0.1,    0.2,   -0.3,   -0.7,   -1.0,   -1.3,   -1.5,   -1.8,   -2.0,   -2.1
2010/01/26 10:40,   -0.3,    0.9,    1.4,    1.5,    3.3,    4.1,  999.0,    4.9,    3.6,   -0.4,    1.5,    2.2,    1.4,    1.0,    1.8,    1.0,    1.9,    2.2,    1.7,    2.6,    3.2,    4.1,    4.1,    4.8,    4.0,    3.5,  999.0,  999.0,    4.4,  999.0,  999.0,  999.0,  999.0,  999.0,    3.7,    3.7,  999.0,    3.2,    3.5,  999.0,  999.0,    2.4,    2.6,  999.0,  999.0,  999.0,  999.0,  999.0,  999.0,  999.0,  999.0,  999.0,  999.0,    3.0,  999.0,  999.0,  999.0,  999.0,  999.0,  999.0,  999.0,  999.0,  999.0,  999.0,  999.0,  999.0,  999.0,  999.0,  999.0,  999.0,  999.0,  999.0,  999.0,  999.0,  999.0,  999.0,  999.0,    1.3,    2.1,    1.4,    1.1,    0.3,    0.0,    0.3,    0.5,    0.4,    0.5,    0.5,    0.5,    0.4,    0.2,   -0.4,   -0.8,   -1.0,   -1.3,   -1.6,   -1.9,   -2.1
2010/01/26 10:50,   -0.1,  999.0,   -0.8,    1.6,    2.6,    3.6,    4.0,    3.9,    1.3,    1.7,    3.1,    1.9,    1.4,    1.5,    2.1,    1.8,    1.4,    1.6,    1.5,    2.0,    3.2,    4.0,    4.4,    4.6,    4.8,    3.9,    4.9,    5.4,    3.9,    5.0,    5.1,    5.4,  999.0,    4.1,    3.7,    4.3,    3.0,    3.8,    4.0,  999.0,  999.0,    1.9,    2.0,  999.0,  999.0,  999.0,  999.0,  999.0,  999.0,  999.0,  999.0,  999.0,    2.3,    2.7,  999.0,  999.0,  999.0,  999.0,  999.0,  999.0,  999.0,  999.0,  999.0,  999.0,  999.0,  999.0,  999.0,  999.0,  999.0,  999.0,  999.0,  999.0,  999.0,  999.0,  999.0,  999.0,  999.0,    0.5,    1.5,    1.4,    1.1,    0.2,    0.0,    0.3,    0.4,    0.2,    0.3,    0.6,    0.6,    0.5,    0.5,    0.3,   -0.3,   -0.7,   -1.1,   -1.6,   -2.0,   -2.3
2010/01/26 11:00,   -0.5,    5.3,    5.6,    1.7,    2.9,    4.6,    5.2,  999.0,   19.0,   18.8,    6.7,    6.8,    3.6,    1.4,    1.7,    1.3,    1.7,    1.7,    2.1,    2.3,    2.7,  999.0,  999.0,    4.1,  999.0,    4.4,    5.4,  999.0,    5.3,  999.0,    4.3,  999.0,  999.0,    5.1,    3.8,    3.8,  999.0,    2.2,    2.4,    2.9,  999.0,    1.7,    2.0,    2.3,  999.0,  999.0,  999.0,  999.0,  999.0,  999.0,  999.0,  999.0,    2.5,  999.0,  999.0,  999.0,  999.0,  999.0,  999.0,  999.0,  999.0,  999.0,  999.0,  999.0,  999.0,  999.0,  999.0,  999.0,  999.0,  999.0,  999.0,  999.0,  999.0,  999.0,  999.0,  999.0,    1.2,    1.0,    1.6,    1.8,    1.5,    1.1,    0.9,    1.1,    1.0,    0.8,    0.6,    0.6,    0.6,    0.6,    0.7,    0.6,   -0.1,   -0.6,   -0.9,   -1.2,   -1.7,   -2.0
2010/01/26 11:10,   -0.6,    1.1,    0.7,    0.3,    2.0,    3.9,    4.5,    5.9,    8.2,    6.8,    7.5,    7.5,    4.5,    1.7,    1.1,  999.0,    1.6,    1.8,    1.9,    2.5,    3.2,    4.0,    4.5,    5.1,    3.9,    3.8,    4.5,    5.3,  999.0,  999.0,  999.0,    4.6,  999.0,    3.8,    3.5,    3.2,  999.0,  999.0,    1.9,    2.0,    2.5,  999.0,    1.6,    1.9,  999.0,  999.0,    1.1,  999.0,  999.0,  999.0,  999.0,  999.0,    2.1,  999.0,  999.0,  999.0,  999.0,  999.0,  999.0,  999.0,  999.0,  999.0,  999.0,  999.0,  999.0,  999.0,  999.0,  999.0,  999.0,  999.0,  999.0,  999.0,  999.0,  999.0,  999.0,    1.9,    1.7,    1.3,    1.6,    1.9,    1.9,    1.4,    1.2,    1.4,    1.4,    1.2,    0.9,    0.7,    0.6,    0.6,    0.8,    0.9,    0.4,   -0.3,   -0.7,   -0.8,   -1.1,   -1.5
2010/01/26 11:20,    0.9,    0.8,    3.0,    2.2,    2.8,    3.3,    3.9,    5.1,   10.8,  999.0,    9.2,    5.6,    7.4,    1.7,  999.0,    1.1,    1.2,    1.6,    2.1,    2.5,    3.6,    4.5,    5.4,    5.6,    5.3,    5.2,    5.5,  999.0,  999.0,  999.0,    4.7,    4.6,  999.0,  999.0,    3.3,    3.4,    3.5,  999.0,    2.6,    2.4,    2.5,    3.0,  999.0,  999.0,  999.0,  999.0,  999.0,  999.0,  999.0,  999.0,  999.0,    2.2,    2.2,    2.7,  999.0,  999.0,  999.0,  999.0,  999.0,  999.0,  999.0,  999.0,  999.0,  999.0,  999.0,  999.0,  999.0,  999.0,  999.0,  999.0,  999.0,  999.0,  999.0,  999.0,    2.1,    1.8,    1.2,    0.8,    1.2,    1.8,    1.7,    1.1,    0.5,    0.8,    1.0,    0.8,    0.5,    0.5,    0.6,    0.7,    0.8,    1.0,    0.9,    0.2,   -0.4,   -0.7,   -0.8,   -1.0
2010/01/26 11:30,    1.6,    5.4,    4.2,    0.6,    2.8,    3.6,    4.6,    4.5,   14.9,    8.6,    3.8,    0.0,    1.5,  999.0,    0.2,   -0.2,    1.2,    1.9,    2.6,    2.7,    2.6,    3.4,    4.3,    5.0,    6.5,    5.4,    6.0,    5.3,    4.5,    4.3,  999.0,    4.1,  999.0,    5.3,    4.2,    4.2,    3.0,    2.7,    2.6,  999.0,    2.4,    2.8,  999.0,  999.0,  999.0,  999.0,  999.0,  999.0,  999.0,  999.0,  999.0,    2.4,  999.0,  999.0,  999.0,  999.0,  999.0,  999.0,  999.0,  999.0,  999.0,  999.0,  999.0,  999.0,  999.0,  999.0,  999.0,  999.0,  999.0,  999.0,  999.0,  999.0,  999.0,    2.2,    2.2,    1.6,    1.1,    0.8,    1.3,    1.6,    1.6,    1.1,    0.6,    0.5,    0.8,    0.9,    0.7,    0.7,    0.7,    0.9,    1.1,    1.3,    1.3,    1.2,    0.8,   -0.0,   -0.4,   -0.7
2010/01/26 11:40,   -0.7,    1.0,    1.3,    2.0,    2.6,    4.0,    3.8,    4.5,    4.3,    2.6,    3.0,    2.5,    1.4,  999.0,    1.6,    1.1,    1.6,    1.9,    2.3,    2.3,    2.7,    4.1,    5.7,    4.8,    6.3,    5.6,    4.3,    4.9,    5.2,    6.1,  999.0,  999.0,    4.3,    5.0,    4.6,    4.7,    3.3,    2.8,    2.6,    2.2,    1.7,    1.9,    2.3,  999.0,  999.0,  999.0,    2.5,  999.0,  999.0,  999.0,  999.0,  999.0,  999.0,  999.0,    2.8,  999.0,  999.0,  999.0,  999.0,  999.0,  999.0,  999.0,  999.0,  999.0,  999.0,  999.0,  999.0,  999.0,  999.0,  999.0,  999.0,  999.0,  999.0,    3.5,    2.9,    2.1,    1.5,    1.3,    1.5,    1.7,    1.6,    1.3,    0.6,    0.7,    1.1,    1.1,    0.9,    0.8,    0.8,    1.0,    1.3,    1.5,    1.4,    1.3,    1.2,    0.6,   -0.2,   -0.7
2010/01/26 11:50,    0.3,    1.7,    1.3,    0.2,    0.8,    3.4,    4.3,    4.8,    3.4,    2.6,    1.8,    1.9,    1.5,    1.5,    1.7,    1.3,    1.5,    2.2,    2.3,    2.5,    2.8,    3.1,    4.3,    4.4,    4.7,    4.7,  999.0,    3.4,  999.0,  999.0,  999.0,  999.0,    3.1,    3.4,    3.0,  999.0,    3.0,    2.4,    2.2,    2.3,    1.7,    1.9,    2.3,    2.5,    2.8,    2.7,    1.9,  999.0,  999.0,    3.4,  999.0,  999.0,  999.0,  999.0,  999.0,  999.0,  999.0,  999.0,  999.0,  999.0,  999.0,  999.0,  999.0,  999.0,  999.0,  999.0,  999.0,  999.0,  999.0,  999.0,  999.0,  999.0,  999.0,  999.0,    3.3,    2.0,    1.1,    0.5,    0.5,    1.1,    0.9,    0.2,    0.1,    0.5,    1.0,    0.8,    0.8,    0.9,    1.1,    1.2,    1.6,    1.8,    1.8,    1.5,    1.3,    1.3,    1.2,    0.9
2010/01/26 12:00,   -0.4,    0.3,    0.4,    0.5,    2.8,    3.8,    4.3,    4.7,   11.5,    5.3,    1.5,    5.5,    8.2,    2.1,    1.8,    1.7,    1.8,    2.2,    2.7,    2.8,    2.9,    2.4,    3.2,    3.8,    4.4,    4.6,    5.0,    4.7,    4.4,  999.0,  999.0,  999.0,    3.4,    3.6,    4.0,    4.7,    3.7,  999.0,    1.7,  999.0,  999.0,    2.8,    2.5,    2.4,    2.6,    3.2,  999.0,    3.4,  999.0,    3.1,  999.0,  999.0,  999.0,  999.0,  999.0,  999.0,  999.0,  999.0,  999.0,  999.0,  999.0,  999.0,  999.0,  999.0,  999.0,  999.0,  999.0,  999.0,  999.0,  999.0,  999.0,  999.0,  999.0,    3.2,    3.0,    1.7,    0.5,   -0.2,    0.2,    0.6,    0.3,   -0.2,   -0.1,    0.6,    0.8,    0.7,    0.8,    1.1,    1.3,    1.4,    1.7,    2.0,    2.3,    2.1,    1.6,    1.3,    1.3,    1.2
2010/01/26 12:10,   -0.3,    0.8,    0.9,    0.4,    0.9,    2.9,    2.5,    2.2,    9.9,   11.3,    9.9,    9.7,    9.5,    9.5,   10.0,  999.0,    2.3,    2.4,    2.5,    2.5,    2.6,    2.8,    3.2,    3.6,    4.0,  999.0,  999.0,    3.7,    4.0,  999.0,  999.0,    4.4,    4.7,    4.7,    4.9,    4.7,    4.2,  999.0,    2.6,    2.5,  999.0,  999.0,    2.9,  999.0,    2.5,    3.4,  999.0,  999.0,  999.0,    1.8,    3.3,  999.0,  999.0,  999.0,  999.0,  999.0,  999.0,  999.0,  999.0,  999.0,  999.0,  999.0,  999.0,  999.0,  999.0,  999.0,  999.0,  999.0,  999.0,  999.0,  999.0,  999.0,  999.0,    5.2,    4.2,    4.3,    2.4,    0.9,    0.7,    1.1,    0.9,    0.2,   -0.1,    0.4,    1.0,    1.1,    1.0,    1.2,    1.5,    1.5,    1.5,    1.6,    1.8,    1.9,    1.9,    1.3,    0.5,    0.2
2010/01/26 12:20,   -0.4,    0.5,    0.0,    0.0,    0.5,    2.6,    2.7,    3.3,    2.4,    1.4,    1.6,    1.6,    1.4,    1.2,    0.1,    2.2,    1.2,    2.2,    2.8,    4.3,    3.4,    3.0,    2.5,    2.7,    2.7,  999.0,  999.0,    2.8,    3.3,  999.0,  999.0,    3.6,    3.8,    3.7,    3.8,    4.4,  999.0,  999.0,  999.0,  999.0,  999.0,  999.0,  999.0,  999.0,  999.0,  999.0,  999.0,  999.0,    1.8,    1.8,  999.0,  999.0,  999.0,  999.0,    2.8,  999.0,  999.0,  999.0,  999.0,  999.0,  999.0,  999.0,  999.0,  999.0,  999.0,  999.0,  999.0,  999.0,  999.0,  999.0,  999.0,  999.0,  999.0,  999.0,    3.5,    2.7,    1.6,    1.2,    1.3,    1.0,    0.2,   -0.4,   -0.4,    0.7,    1.1,    1.1,    1.1,    1.4,    1.4,    1.3,    1.3,    1.5,    1.7,    1.9,    2.1,    1.9,    1.3,    0.6
2010/01/26 12:30,   -0.4,  999.0,    0.2,    0.6,    1.5,    2.0,    2.5,    2.8,    2.4,    1.0,    2.1,    1.4,    1.2,    1.7,  999.0,  999.0,   -0.5,    3.5,    3.4,    3.2,    2.9,    2.4,    1.4,    2.2,    1.4,    3.3,    4.6,    6.4,    5.2,  999.0,  999.0,  999.0,    3.7,    4.1,    4.4,    4.3,    3.5,  999.0,  999.0,  999.0,  999.0,    1.6,    2.5,  999.0,  999.0,  999.0,  999.0,  999.0,  999.0,    1.7,    1.7,  999.0,  999.0,  999.0,  999.0,    3.7,  999.0,  999.0,  999.0,  999.0,  999.0,  999.0,  999.0,  999.0,  999.0,  999.0,  999.0,  999.0,  999.0,  999.0,  999.0,  999.0,  999.0,    4.4,    4.2,    3.4,    2.5,    2.1,    2.1,    2.1,    1.6,    1.0,    0.8,    1.1,    1.3,    1.4,    1.4,    1.3,    1.2,    1.1,    1.2,    1.3,    1.5,    1.8,    2.1,    2.0,    2.0,    1.4
2010/01/26 12:40,   -0.1,    1.1,    0.8,    0.2,    0.2,    2.4,    2.8,    4.1,    2.6,    2.5,    3.5,    2.2,    2.1,    2.7,    2.2,    2.4,    2.6,    2.7,    3.0,    3.6,    4.3,    4.2,    3.7,    4.5,    4.7,    6.0,  999.0,  999.0,  999.0,  999.0,  999.0,    3.0,    3.4,    3.5,    4.1,    2.7,    2.7,    2.7,    3.2,    3.5,  999.0,    2.6,    2.4,  999.0,  999.0,  999.0,  999.0,  999.0,  999.0,    2.6,    3.8,  999.0,  999.0,  999.0,  999.0,  999.0,  999.0,  999.0,  999.0,  999.0,  999.0,  999.0,  999.0,  999.0,  999.0,  999.0,  999.0,  999.0,  999.0,  999.0,  999.0,  999.0,  999.0,  999.0,  999.0,  999.0,    1.1,    0.4,    0.4,    0.7,   -0.0,   -0.9,   -1.0,   -0.2,    0.3,    0.4,    0.5,    0.5,    0.2,    0.2,    0.4,    0.6,    0.8,    1.3,    1.8,    2.1,    2.2,    1.7
2010/01/26 12:50,   -0.4,   -0.0,   -0.2,   -0.5,    0.1,    0.8,  999.0,    4.7,  999.0,    0.3,    2.4,    2.1,    4.0,    7.2,    7.2,    5.5,    8.0,    6.7,    6.8,    6.2,    8.5,    6.8,    7.9,    8.5,    7.6,    7.4,    5.4,    3.6,    3.9,  999.0,    4.4,    3.6,    3.7,    4.1,  999.0,  999.0,    3.0,    2.9,    3.1,    3.6,  999.0,  999.0,    1.6,  999.0,  999.0,  999.0,    3.2,    2.1,  999.0,    1.3,    2.2,  999.0,  999.0,  999.0,  999.0,  999.0,  999.0,  999.0,  999.0,  999.0,  999.0,  999.0,  999.0,  999.0,  999.0,  999.0,  999.0,  999.0,  999.0,  999.0,  999.0,  999.0,  999.0,  999.0,  999.0,  999.0,    0.9,    0.0,    0.3,    0.4,    0.1,    0.2,    0.4,    0.8,    0.9,    1.1,    1.1,    1.0,    0.8,    0.8,    1.0,    1.2,    1.4,    1.8,    2.0,    2.1,    2.1,    2.0
2010/01/26 13:00,   -0.3,    0.3,   -0.2,   -0.6,   -0.3,    2.8,    3.2,    3.9,    2.2,    1.7,    2.4,    2.1,    1.6,    0.5,    1.0,    2.7,    2.9,    3.7,    4.2,    5.5,    4.5,    3.5,    3.9,    4.8,    4.5,    3.8,    4.1,    4.1,    3.5,    4.0,    2.6,    3.0,    3.3,    3.3,    2.4,  999.0,    3.9,    3.3,    2.9,    2.8,  999.0,  999.0,  999.0,  999.0,    1.3,  999.0,  999.0,  999.0,    0.8,    1.1,  999.0,  999.0,  999.0,  999.0,  999.0,  999.0,  999.0,  999.0,  999.0,  999.0,  999.0,  999.0,  999.0,  999.0,  999.0,  999.0,  999.0,  999.0,  999.0,  999.0,  999.0,  999.0,  999.0,  999.0,  999.0,  999.0,   -0.5,   -0.7,    0.3,    0.3,    0.3,    0.1,    0.5,    0.7,    0.8,    0.9,    0.9,    0.7,    0.7,    0.7,    0.7,    0.6,    0.6,    0.7,    0.7,    0.6,    0.7,    0.7
2010/01/26 13:10,   -0.3,    0.0,   -0.3,   -0.3,    0.7,    4.0,  999.0,  999.0,    0.9,    0.8,   -0.6,   -1.0,   -0.7,  999.0,    1.4,    1.1,    2.3,    2.7,    2.9,    3.4,    3.8,    4.0,    3.8,    4.5,    3.7,    4.3,    5.4,    4.0,    3.6,    4.1,    2.4,    2.0,    2.3,    2.6,    2.6,    3.1,    3.4,    3.4,    4.0,  999.0,  999.0,  999.0,  999.0,    2.9,    3.2,    3.5,  999.0,  999.0,    2.9,    2.8,  999.0,  999.0,  999.0,  999.0,  999.0,  999.0,  999.0,  999.0,  999.0,  999.0,  999.0,  999.0,  999.0,  999.0,  999.0,  999.0,  999.0,  999.0,  999.0,  999.0,  999.0,  999.0,  999.0,  999.0,  999.0,  999.0,  999.0,  999.0,    1.2,    1.4,    0.7,    0.8,    1.0,    1.1,    1.1,    1.2,    1.2,    1.1,    1.2,    1.2,    1.0,    1.0,    1.0,    1.0,    1.1,    0.9,    0.8,    0.9
2010/01/26 13:20,  999.0,    2.0,   -0.0,   -0.4,    0.2,    3.1,    3.7,  999.0,    1.9,   -1.6,   -1.7,   -2.4,    0.2,   -1.6,   -4.3,   -5.8,  999.0,  999.0,    2.9,    3.5,    5.3,    4.4,    2.6,    1.1,    1.5,    2.3,    2.2,    1.9,    1.4,    1.2,  999.0,    2.1,    2.3,    2.7,    4.8,    6.8,  999.0,  999.0,  999.0,  999.0,  999.0,  999.0,  999.0,    5.6,    3.9,  999.0,  999.0,  999.0,    1.2,    3.7,  999.0,  999.0,  999.0,  999.0,  999.0,  999.0,  999.0,  999.0,  999.0,  999.0,  999.0,  999.0,  999.0,  999.0,  999.0,  999.0,  999.0,  999.0,  999.0,  999.0,  999.0,  999.0,  999.0,  999.0,  999.0,  999.0,  999.0,  999.0,  999.0,  999.0,    0.5,    0.5,    0.7,    0.6,    0.4,    0.0,   -0.1,   -0.0,    0.3,    0.4,    0.6,    0.6,    0.8,    1.1,    1.1,    1.1,    1.1,    1.1
2010/01/26 13:30,   -0.4,    0.6,   -0.3,   -0.3,   -0.2,    3.8,  999.0,  999.0,    2.4,    0.9,   -4.4,   -9.2,   -3.2,   -9.3,   -2.2,   -2.4,   -1.3,    0.6,    1.9,    2.8,    2.6,    3.3,    2.6,    2.2,    2.2,    1.2,    1.2,    1.1,    1.5,    2.5,    2.6,    2.7,    2.2,    3.4,    3.0,    2.9,    2.8,  999.0,  999.0,  999.0,  999.0,  999.0,  999.0,    2.2,    2.3,  999.0,  999.0,    2.1,    2.0,    2.5,  999.0,  999.0,  999.0,  999.0,  999.0,  999.0,  999.0,  999.0,  999.0,  999.0,  999.0,  999.0,  999.0,  999.0,  999.0,  999.0,  999.0,  999.0,  999.0,  999.0,  999.0,  999.0,  999.0,  999.0,  999.0,  999.0,  999.0,    0.7,    0.6,    0.0,   -0.3,   -0.5,   -0.3,   -0.2,   -0.1,   -0.4,   -0.4,   -0.3,    0.0,    0.3,    0.5,    0.6,    0.6,    0.6,    0.6,    0.4,    0.5,    0.4
2010/01/26 13:40,   -0.6,    0.4,   -0.4,   -0.6,   -0.4,    3.6,  999.0,  999.0,   19.9,  999.0,   11.2,    6.2,    9.0,    4.4,    1.8,    2.6,    2.9,    2.7,    3.3,    3.4,    3.7,    4.2,    3.6,    3.6,    3.7,    3.4,    2.1,    1.9,    1.9,    1.9,    1.3,    1.3,    1.5,    2.0,    3.0,    3.5,    3.3,  999.0,  999.0,  999.0,  999.0,  999.0,  999.0,  999.0,    1.6,    2.5,    1.8,    2.2,    2.8,    3.0,  999.0,  999.0,  999.0,  999.0,  999.0,  999.0,  999.0,  999.0,  999.0,  999.0,  999.0,  999.0,  999.0,  999.0,  999.0,  999.0,  999.0,  999.0,  999.0,  999.0,  999.0,  999.0,  999.0,  999.0,  999.0,    1.6,    1.1,    1.3,    1.2,    0.4,   -0.5,   -1.1,   -1.0,   -0.8,   -0.5,   -0.3,   -0.1,    0.0,    0.1,    0.3,    0.4,    0.4,    0.4,    0.4,    0.1,   -0.2,   -0.5,   -0.5
2010/01/26 13:50,  999.0,    0.4,   -0.3,   -0.5,   -0.0,    1.1,    0.8,    1.6,    6.7,    0.8,    9.3,  999.0,  999.0,  999.0,    2.3,    2.9,    3.1,    3.9,    4.4,    4.1,    3.5,    3.3,    3.0,    3.1,    3.6,    4.1,    3.9,    3.8,    3.0,    2.7,    2.2,    2.5,    2.3,    2.7,    3.4,    3.6,    4.1,    5.0,  999.0,  999.0,  999.0,  999.0,  999.0,  999.0,  999.0,  999.0,  999.0,  999.0,    2.3,    1.9,    2.3,    1.8,  999.0,  999.0,  999.0,  999.0,  999.0,  999.0,  999.0,  999.0,  999.0,  999.0,  999.0,  999.0,  999.0,  999.0,  999.0,  999.0,  999.0,  999.0,  999.0,  999.0,  999.0,  999.0,  999.0,    0.7,    0.3,   -0.1,    0.1,   -0.1,   -0.8,   -1.1,   -0.9,   -0.4,   -0.2,    0.0,    0.1,    0.0,   -0.1,   -0.2,   -0.2,   -0.1,   -0.1,   -0.2,   -0.1,    0.0,    0.0,    0.0
2010/01/26 14:00,    0.3,  999.0,  999.0,  999.0,  999.0,  999.0,   -0.5,    0.2,  999.0,    9.7,   20.2,   20.4,   10.6,   10.3,  999.0,    2.7,    2.2,    2.9,    3.1,    3.7,    3.4,    2.9,    2.6,    2.7,    2.7,    2.4,    2.8,    3.5,  999.0,    4.8,    3.9,    2.8,    2.8,    3.2,    3.9,    2.8,    3.5,  999.0,  999.0,  999.0,  999.0,  999.0,  999.0,  999.0,  999.0,  999.0,  999.0,    1.6,    1.9,    1.4,    1.0,  999.0,  999.0,  999.0,  999.0,  999.0,  999.0,  999.0,  999.0,  999.0,  999.0,  999.0,  999.0,  999.0,  999.0,  999.0,  999.0,  999.0,  999.0,  999.0,  999.0,  999.0,  999.0,  999.0,    2.1,    1.6,    0.7,    0.6,    0.2,   -0.3,   -0.8,   -0.7,   -0.6,   -0.5,   -0.5,   -0.5,   -0.5,   -0.5,   -0.7,   -0.9,   -0.9,   -1.0,   -0.8,   -0.8,   -0.7,   -0.1,    0.3,    0.3
2010/01/26 14:10,  999.0,    1.1,    0.4,   -0.1,    0.4,   11.9,  999.0,  999.0,  999.0,  999.0,   -0.3,    6.2,    0.7,   20.2,    7.0,    3.0,    3.3,    3.5,    3.4,    3.5,    3.6,    3.8,    3.2,    3.3,    2.3,    2.1,    2.2,    2.9,    3.6,    4.7,    3.3,    3.3,    2.8,    3.7,    4.5,  999.0,  999.0,  999.0,  999.0,  999.0,  999.0,  999.0,  999.0,    3.1,  999.0,  999.0,  999.0,    2.6,    2.8,  999.0,    1.8,  999.0,  999.0,  999.0,  999.0,  999.0,  999.0,  999.0,  999.0,  999.0,  999.0,  999.0,  999.0,  999.0,  999.0,  999.0,  999.0,  999.0,  999.0,  999.0,  999.0,  999.0,  999.0,    2.2,    1.9,    1.0,   -0.4,   -0.8,   -0.5,   -1.0,   -1.1,   -1.0,   -0.9,   -0.9,   -0.8,   -0.6,   -0.5,   -0.7,   -1.0,   -1.1,   -1.1,   -0.6,   -0.2,    0.3,    0.1,    0.0,    0.1,    0.2
2010/01/26 14:20,   -0.6,    3.9,    3.3,    0.3,    5.0,    3.3,  999.0,  999.0,   16.5,   20.3,  999.0,   17.8,   20.8,   20.9,  999.0,  999.0,  999.0,    3.8,    4.1,    4.5,  999.0,  999.0,    3.4,    3.8,    2.5,    2.6,    3.3,  999.0,    4.2,  999.0,    4.3,  999.0,  999.0,    4.3,  999.0,  999.0,  999.0,  999.0,  999.0,  999.0,  999.0,  999.0,  999.0,  999.0,  999.0,  999.0,    1.3,    1.7,    2.2,  999.0,  999.0,  999.0,  999.0,  999.0,  999.0,  999.0,  999.0,  999.0,  999.0,  999.0,  999.0,  999.0,  999.0,  999.0,  999.0,  999.0,  999.0,  999.0,  999.0,  999.0,  999.0,  999.0,  999.0,  999.0,    2.4,    3.3,    2.6,    1.4,    0.1,   -1.0,   -1.8,   -1.9,   -1.8,   -1.8,   -1.6,   -1.4,   -1.2,   -1.3,   -1.3,   -1.0,   -0.7,   -0.2,    0.4,    1.1,    1.4,    1.3,    0.9,    0.8
2010/01/26 14:30,   10.3,    7.1,    8.1,    2.8,   12.2,  999.0,  999.0,  999.0,   13.4,   20.3,   16.1,   17.1,  999.0,   20.7,   21.0,  999.0,    4.1,    4.0,  999.0,    4.2,  999.0,    4.1,    3.2,    3.4,    3.5,    3.2,    3.6,    2.9,    4.0,  999.0,    4.4,    4.3,    5.1,  999.0,  999.0,  999.0,  999.0,  999.0,  999.0,  999.0,  999.0,  999.0,  999.0,  999.0,  999.0,  999.0,  999.0,    2.5,  999.0,  999.0,  999.0,  999.0,  999.0,  999.0,  999.0,  999.0,  999.0,  999.0,  999.0,  999.0,  999.0,  999.0,  999.0,  999.0,  999.0,  999.0,  999.0,  999.0,  999.0,  999.0,  999.0,  999.0,  999.0,    3.0,  999.0,    1.5,    0.9,   -0.0,   -1.4,   -2.8,   -3.1,   -2.2,   -1.6,   -1.5,   -1.0,   -0.7,   -0.7,   -0.7,   -0.3,    0.2,    0.5,    0.6,    0.9,    1.2,    0.8,    0.8,    1.0,    0.9
2010/01/26 14:40,    0.9,    2.3,    2.3,    2.9,    4.7,    5.3,    5.1,    4.2,  999.0,  999.0,    4.1,  999.0,    3.2,  999.0,    3.8,    4.5,    4.8,    4.0,    4.3,    3.8,    3.3,    4.2,    2.8,    3.1,    2.9,    1.8,    2.7,    3.3,    4.2,    5.1,  999.0,    4.5,    4.6,  999.0,  999.0,  999.0,  999.0,  999.0,  999.0,  999.0,  999.0,  999.0,  999.0,  999.0,  999.0,  999.0,  999.0,    1.6,  999.0,  999.0,  999.0,  999.0,  999.0,  999.0,  999.0,  999.0,  999.0,  999.0,  999.0,  999.0,  999.0,  999.0,  999.0,  999.0,  999.0,  999.0,  999.0,  999.0,  999.0,  999.0,  999.0,  999.0,  999.0,  999.0,  999.0,    1.0,    1.0,    1.2,    0.6,   -0.9,   -1.6,   -1.4,   -1.1,   -1.2,   -1.3,   -0.8,   -0.7,   -0.6,   -0.0,    0.6,    1.0,    1.1,    1.1,    1.1,    0.9,    0.8,    0.8,    0.9
2010/01/26 14:50,    0.5,    1.4,    2.4,    3.3,    3.9,    4.3,  999.0,  999.0,  999.0,  999.0,  999.0,  999.0,  999.0,  999.0,  999.0,  999.0,    5.4,    5.0,  999.0,    4.3,    3.9,    3.7,    2.5,    3.5,    4.1,    4.1,    4.6,    4.9,    5.0,    4.8,    5.1,    4.7,    3.8,    4.0,  999.0,  999.0,    3.8,  999.0,  999.0,  999.0,  999.0,  999.0,  999.0,  999.0,  999.0,  999.0,    2.4,    2.8,    2.5,  999.0,  999.0,  999.0,  999.0,  999.0,  999.0,  999.0,  999.0,  999.0,  999.0,  999.0,  999.0,  999.0,  999.0,  999.0,  999.0,  999.0,  999.0,  999.0,  999.0,  999.0,  999.0,  999.0,  999.0,    2.8,    2.4,    1.6,    0.7,    0.8,    0.7,   -0.1,   -1.2,   -1.6,   -1.9,   -1.6,   -0.9,    0.2,    0.3,    0.7,    1.2,    1.3,    1.3,    1.3,    1.1,    0.9,    0.9,    0.8,    0.7,    0.8
2010/01/26 15:00,   -0.2,    1.6,    1.0,    0.6,  999.0,    5.0,  999.0,  999.0,    2.9,  999.0,  999.0,  999.0,  999.0,  999.0,  999.0,  999.0,  999.0,  999.0,  999.0,  999.0,  999.0,  999.0,    3.3,    3.5,    4.6,    4.3,    4.9,    5.1,    4.6,    4.1,  999.0,    3.5,    3.4,    4.0,    4.3,  999.0,  999.0,  999.0,  999.0,  999.0,    2.0,    2.6,  999.0,  999.0,  999.0,  999.0,  999.0,    2.3,    2.4,    2.8,  999.0,  999.0,  999.0,  999.0,  999.0,  999.0,  999.0,  999.0,  999.0,  999.0,  999.0,  999.0,  999.0,  999.0,  999.0,  999.0,  999.0,  999.0,  999.0,  999.0,  999.0,    5.9,    4.8,    4.4,    4.3,    3.4,    1.6,    1.0,   -0.0,   -1.2,   -2.1,   -2.4,   -2.1,   -1.2,    0.1,    0.7,    1.0,    0.9,    0.9,    0.8,    0.8,    0.8,    0.9,    0.9,    0.7,    0.7,    0.7,    0.8
2010/01/26 15:10,   -0.5,    1.3,    1.6,    1.2,    2.2,    4.3,  999.0,  999.0,  999.0,  999.0,  999.0,  999.0,  999.0,  999.0,  999.0,  999.0,  999.0,  999.0,  999.0,  999.0,  999.0,  999.0,  999.0,  999.0,  999.0,    5.3,    4.5,    5.1,    5.4,    4.3,  999.0,    5.0,    4.8,    5.1,    5.4,    5.3,  999.0,  999.0,  999.0,  999.0,  999.0,  999.0,  999.0,  999.0,  999.0,  999.0,  999.0,    3.7,    3.1,  999.0,  999.0,  999.0,  999.0,  999.0,  999.0,  999.0,  999.0,  999.0,  999.0,  999.0,  999.0,  999.0,  999.0,  999.0,  999.0,  999.0,  999.0,  999.0,  999.0,  999.0,  999.0,    4.5,    4.6,    4.5,    2.3,    1.3,    0.9,    0.4,   -0.6,   -1.5,   -2.1,   -2.2,   -1.5,   -0.4,    0.1,    0.7,    1.2,    1.6,    1.5,    1.4,    1.2,    1.3,    1.5,    1.8,    2.1,    2.1,    2.2,    2.3
2010/01/26 15:20,   -0.7,    1.0,    1.1,    0.8,    0.6,  999.0,  999.0,  999.0,  999.0,  999.0,  999.0,  999.0,  999.0,  999.0,  999.0,  999.0,  999.0,  999.0,  999.0,  999.0,  999.0,  999.0,  999.0,  999.0,    5.2,    5.7,    5.9,    5.9,    5.9,    5.6,    4.4,    3.8,    4.5,    4.4,    4.2,    4.5,  999.0,  999.0,  999.0,  999.0,  999.0,  999.0,  999.0,  999.0,  999.0,  999.0,  999.0,  999.0,  999.0,  999.0,  999.0,  999.0,  999.0,  999.0,  999.0,  999.0,  999.0,  999.0,  999.0,  999.0,  999.0,  999.0,  999.0,  999.0,  999.0,  999.0,  999.0,  999.0,  999.0,  999.0,  999.0,  999.0,  999.0,  999.0,  999.0,  999.0,  999.0,   -0.2,   -0.7,   -1.4,   -2.2,   -2.4,   -1.8,   -0.5,    0.4,    1.2,    1.5,    1.4,    1.2,    1.1,    0.9,    0.7,    0.7,    1.0,  999.0,  999.0,  999.0,  999.0
2010/01/26 15:30,   -0.6,    0.9,    0.7,   -0.5,    0.5,  999.0,  999.0,  999.0,  999.0,  999.0,   20.6,   20.8,   20.9,   21.2,   21.2,  999.0,  999.0,  999.0,  999.0,  999.0,  999.0,  999.0,  999.0,  999.0,  999.0,    6.0,    5.8,    5.5,    5.8,    6.1,    5.0,    3.9,    3.8,    4.5,    4.6,  999.0,  999.0,  999.0,  999.0,  999.0,  999.0,  999.0,  999.0,  999.0,  999.0,  999.0,  999.0,  999.0,  999.0,  999.0,  999.0,  999.0,  999.0,  999.0,  999.0,  999.0,  999.0,  999.0,  999.0,  999.0,  999.0,  999.0,  999.0,  999.0,  999.0,  999.0,  999.0,  999.0,  999.0,  999.0,  999.0,  999.0,  999.0,  999.0,  999.0,  999.0,  999.0,  999.0,   -1.7,   -2.0,   -2.3,   -2.1,   -1.0,    0.0,    0.4,    1.2,    1.4,    2.1,    2.7,    2.6,  999.0,  999.0,  999.0,  999.0,  999.0,  999.0,  999.0,  999.0
2010/01/26 15:40,  999.0,   14.7,  999.0,   10.1,  999.0,  999.0,  999.0,  999.0,   21.1,   20.9,   20.9,   21.0,   21.2,   21.4,   21.8,  999.0,  999.0,  999.0,  999.0,  999.0,  999.0,  999.0,  999.0,  999.0,  999.0,    6.2,    5.6,    5.1,    5.5,    5.1,    4.6,  999.0,  999.0,  999.0,  999.0,  999.0,  999.0,  999.0,  999.0,  999.0,  999.0,  999.0,  999.0,  999.0,  999.0,  999.0,  999.0,    3.3,  999.0,  999.0,  999.0,  999.0,  999.0,  999.0,  999.0,  999.0,  999.0,  999.0,  999.0,  999.0,  999.0,  999.0,  999.0,  999.0,  999.0,  999.0,  999.0,  999.0,  999.0,  999.0,  999.0,  999.0,  999.0,  999.0,  999.0,  999.0,  999.0,  999.0,   -0.8,   -1.2,   -1.9,   -1.8,   -1.3,    0.0,    0.4,  999.0,  999.0,  999.0,  999.0,  999.0,  999.0,  999.0,  999.0,  999.0,  999.0,  999.0,  999.0,  999.0
2010/01/26 15:50,  999.0,   15.7,  999.0,   20.3,   20.6,   21.0,   20.6,   20.7,   20.8,   20.7,   20.6,   20.7,   20.7,   20.8,   21.1,  999.0,  999.0,  999.0,    3.8,    4.1,    4.7,  999.0,  999.0,  999.0,    5.2,    5.5,    5.5,    5.0,    4.2,    4.7,  999.0,  999.0,  999.0,    3.2,  999.0,  999.0,  999.0,  999.0,  999.0,  999.0,  999.0,  999.0,  999.0,  999.0,  999.0,  999.0,  999.0,    3.2,    2.8,  999.0,  999.0,  999.0,  999.0,  999.0,  999.0,  999.0,  999.0,  999.0,  999.0,  999.0,  999.0,  999.0,  999.0,  999.0,  999.0,  999.0,  999.0,  999.0,  999.0,  999.0,  999.0,  999.0,  999.0,  999.0,  999.0,  999.0,  999.0,  999.0,  999.0,  999.0,  999.0,  999.0,  999.0,  999.0,  999.0,  999.0,  999.0,  999.0,  999.0,  999.0,  999.0,  999.0,  999.0,  999.0,  999.0,  999.0,  999.0,  999.0
2010/01/26 16:00,  999.0,   20.0,   13.1,  999.0,   20.1,   19.6,   19.5,  999.0,   20.1,  999.0,   20.0,  999.0,   20.5,   20.7,  999.0,  999.0,  999.0,  999.0,    3.8,    3.7,    4.3,  999.0,  999.0,  999.0,  999.0,    5.3,    5.7,    5.9,    5.3,    4.5,    4.6,  999.0,    2.9,    2.8,    2.4,  999.0,  999.0,  999.0,  999.0,  999.0,  999.0,  999.0,  999.0,  999.0,  999.0,  999.0,  999.0,    3.5,    3.2,  999.0,  999.0,  999.0,  999.0,  999.0,  999.0,  999.0,  999.0,  999.0,  999.0,  999.0,  999.0,  999.0,  999.0,  999.0,  999.0,  999.0,  999.0,  999.0,  999.0,  999.0,  999.0,  999.0,  999.0,  999.0,  999.0,  999.0,  999.0,  999.0,  999.0,  999.0,  999.0,  999.0,  999.0,  999.0,  999.0,  999.0,  999.0,  999.0,  999.0,  999.0,  999.0,  999.0,  999.0,  999.0,  999.0,  999.0,  999.0,  999.0
2010/01/26 16:10,    6.2,    9.9,    9.6,  999.0,   12.4,   17.6,   20.0,  999.0,   20.4,  999.0,  999.0,   20.2,  999.0,   20.3,  999.0,  999.0,  999.0,    3.3,    3.5,    4.3,    4.4,  999.0,    4.9,    5.4,  999.0,    5.4,    6.2,    5.7,    5.3,  999.0,  999.0,    4.0,    3.2,    3.5,    3.0,    2.9,    3.2,  999.0,  999.0,  999.0,  999.0,  999.0,  999.0,  999.0,    2.2,  999.0,  999.0,  999.0,    2.0,    1.6,  999.0,  999.0,  999.0,  999.0,  999.0,  999.0,  999.0,  999.0,  999.0,  999.0,  999.0,  999.0,  999.0,  999.0,  999.0,  999.0,  999.0,  999.0,  999.0,  999.0,  999.0,  999.0,  999.0,  999.0,  999.0,  999.0,  999.0,  999.0,  999.0,  999.0,  999.0,  999.0,  999.0,  999.0,  999.0,  999.0,  999.0,  999.0,  999.0,  999.0,  999.0,  999.0,  999.0,  999.0,  999.0,  999.0,  999.0,  999.0
2010/01/26 16:20,   20.0,   19.6,   19.7,   19.6,   12.6,   20.4,   20.5,   20.2,   20.2,   20.2,   20.1,   20.1,  999.0,   20.4,  999.0,  999.0,  999.0,    3.9,    4.6,    4.6,  999.0,    5.5,  999.0,  999.0,    4.8,    5.3,    6.2,    6.0,    6.4,    6.3,  999.0,  999.0,    3.9,  999.0,  999.0,    2.5,  999.0,  999.0,  999.0,  999.0,  999.0,  999.0,  999.0,  999.0,  999.0,  999.0,  999.0,    2.7,  999.0,  999.0,  999.0,  999.0,  999.0,  999.0,  999.0,  999.0,  999.0,  999.0,  999.0,  999.0,  999.0,  999.0,  999.0,  999.0,  999.0,  999.0,  999.0,  999.0,  999.0,  999.0,  999.0,  999.0,  999.0,  999.0,  999.0,  999.0,  999.0,  999.0,  999.0,  999.0,  999.0,  999.0,  999.0,  999.0,  999.0,  999.0,  999.0,  999.0,  999.0,  999.0,  999.0,  999.0,  999.0,  999.0,  999.0,  999.0,  999.0,  999.0
2010/01/26 16:30,    6.1,    3.1,    2.8,   -0.4,  999.0,   14.4,    6.7,  999.0,   13.2,   20.0,   20.0,  999.0,   20.2,   -6.6,  999.0,  999.0,  999.0,  999.0,    4.6,    5.2,    5.4,  999.0,  999.0,  999.0,    5.4,    5.4,    6.2,    5.7,    5.3,    4.9,    4.6,    4.4,  999.0,  999.0,  999.0,  999.0,  999.0,  999.0,  999.0,    2.4,  999.0,  999.0,  999.0,  999.0,  999.0,  999.0,    2.7,    2.9,    3.1,  999.0,  999.0,  999.0,  999.0,  999.0,  999.0,  999.0,  999.0,  999.0,  999.0,  999.0,  999.0,  999.0,  999.0,  999.0,  999.0,  999.0,  999.0,  999.0,  999.0,  999.0,  999.0,  999.0,  999.0,  999.0,  999.0,  999.0,  999.0,  999.0,  999.0,  999.0,  999.0,  999.0,  999.0,  999.0,  999.0,  999.0,  999.0,  999.0,  999.0,  999.0,  999.0,  999.0,  999.0,  999.0,  999.0,  999.0,  999.0,  999.0
2010/01/26 16:40,    1.9,   -3.7,   -7.2,  999.0,  -10.4,   11.5,   -6.2,  999.0,   -0.1,   -0.1,   -0.2,   -0.0,  999.0,  -19.8,  -19.7,  999.0,  999.0,    3.9,  999.0,  999.0,  999.0,  999.0,    4.4,  999.0,    5.0,    6.5,    6.0,    4.9,    4.4,    3.5,  999.0,  999.0,  999.0,    2.6,  999.0,    2.4,  999.0,  999.0,  999.0,  999.0,  999.0,  999.0,  999.0,  999.0,  999.0,  999.0,  999.0,    2.7,    2.5,  999.0,  999.0,  999.0,  999.0,  999.0,  999.0,  999.0,  999.0,  999.0,  999.0,  999.0,  999.0,  999.0,  999.0,  999.0,  999.0,  999.0,  999.0,  999.0,  999.0,  999.0,  999.0,  999.0,  999.0,  999.0,  999.0,  999.0,  999.0,  999.0,  999.0,  999.0,  999.0,  999.0,  999.0,  999.0,  999.0,  999.0,  999.0,  999.0,  999.0,  999.0,  999.0,  999.0,  999.0,  999.0,  999.0,  999.0,  999.0,  999.0
2010/01/26 16:50,   -0.7,   -0.0,   -1.1,   -1.5,  999.0,  999.0,  999.0,  999.0,  999.0,  999.0,  -20.1,  999.0,  999.0,  999.0,  999.0,  999.0,  999.0,    3.5,    4.3,  999.0,    4.3,    4.4,    4.4,    4.8,    5.7,    5.6,    5.8,    4.8,    4.9,  999.0,  999.0,  999.0,    3.9,  999.0,  999.0,  999.0,  999.0,  999.0,  999.0,  999.0,  999.0,  999.0,  999.0,  999.0,  999.0,  999.0,  999.0,    2.9,  999.0,  999.0,  999.0,  999.0,  999.0,  999.0,  999.0,  999.0,  999.0,  999.0,  999.0,  999.0,    3.6,    3.2,  999.0,  999.0,  999.0,  999.0,  999.0,  999.0,  999.0,  999.0,  999.0,  999.0,  999.0,  999.0,  999.0,  999.0,  999.0,  999.0,  999.0,  999.0,  999.0,  999.0,  999.0,  999.0,  999.0,  999.0,  999.0,  999.0,  999.0,  999.0,  999.0,  999.0,  999.0,  999.0,  999.0,  999.0,  999.0,  999.0
2010/01/26 17:00,   -0.7,   -0.2,   -0.4,   -0.7,  999.0,  999.0,  999.0,  999.0,  999.0,  999.0,  -19.9,  -19.8,  999.0,  999.0,  999.0,  999.0,    4.1,  999.0,  999.0,  999.0,    4.6,    5.1,    5.7,    6.4,    6.4,    7.0,    6.8,    7.0,    5.6,    6.0,  999.0,  999.0,    3.6,  999.0,  999.0,  999.0,  999.0,  999.0,  999.0,  999.0,  999.0,  999.0,  999.0,  999.0,  999.0,  999.0,  999.0,  999.0,  999.0,  999.0,  999.0,  999.0,  999.0,  999.0,  999.0,  999.0,  999.0,    2.2,    2.8,    3.8,    3.3,    4.1,  999.0,  999.0,  999.0,  999.0,  999.0,  999.0,  999.0,  999.0,  999.0,  999.0,  999.0,  999.0,  999.0,  999.0,  999.0,  999.0,  999.0,  999.0,  999.0,  999.0,  999.0,  999.0,  999.0,  999.0,  999.0,  999.0,  999.0,  999.0,  999.0,  999.0,  999.0,  999.0,  999.0,  999.0,  999.0,  999.0
2010/01/26 17:10,   -0.9,   -0.3,   -0.5,   -0.9,   -0.4,   -0.4,   -1.5,  999.0,  999.0,  999.0,  -19.7,  -19.6,  999.0,  999.0,  -20.1,  999.0,  999.0,  999.0,  999.0,  999.0,    4.0,    3.8,    4.6,    5.2,    5.9,    6.4,    6.5,    6.6,    6.1,    6.5,    5.1,  999.0,  999.0,    4.4,    4.0,    4.5,  999.0,  999.0,  999.0,  999.0,  999.0,  999.0,  999.0,  999.0,  999.0,  999.0,  999.0,  999.0,  999.0,  999.0,  999.0,  999.0,  999.0,  999.0,  999.0,  999.0,  999.0,    4.7,    4.9,    3.9,    4.0,  999.0,    5.0,  999.0,  999.0,  999.0,  999.0,  999.0,  999.0,  999.0,  999.0,  999.0,  999.0,  999.0,  999.0,  999.0,  999.0,  999.0,  999.0,  999.0,  999.0,  999.0,  999.0,  999.0,  999.0,  999.0,  999.0,  999.0,  999.0,  999.0,  999.0,  999.0,  999.0,  999.0,  999.0,  999.0,  999.0,  999.0
2010/01/26 17:20,   -0.5,    0.4,   -0.7,   -0.1,   -0.6,    0.6,  999.0,  999.0,  999.0,  -19.3,  -19.4,  -19.2,  999.0,  -18.7,  -18.7,  999.0,  999.0,  999.0,    4.1,    5.0,    4.0,    4.5,    5.1,    5.4,    6.1,    6.6,    6.5,    6.7,    5.9,    6.3,  999.0,  999.0,  999.0,    3.9,    3.9,    4.4,  999.0,  999.0,  999.0,  999.0,  999.0,  999.0,  999.0,  999.0,  999.0,  999.0,    1.6,  999.0,  999.0,  999.0,  999.0,  999.0,  999.0,  999.0,  999.0,  999.0,  999.0,  999.0,    4.2,    4.4,    5.0,    5.0,    3.8,  999.0,  999.0,    3.4,  999.0,  999.0,  999.0,  999.0,  999.0,  999.0,  999.0,  999.0,  999.0,  999.0,  999.0,  999.0,  999.0,  999.0,  999.0,  999.0,  999.0,  999.0,  999.0,  999.0,  999.0,  999.0,  999.0,  999.0,  999.0,  999.0,  999.0,  999.0,  999.0,  999.0,  999.0,  999.0
2010/01/26 17:30,   -0.2,   -0.1,   -0.2,   -0.4,   -0.5,    0.8,  999.0,  999.0,  999.0,  999.0,  -19.4,  999.0,  999.0,  999.0,  999.0,  999.0,  999.0,  999.0,  999.0,    3.1,    4.1,    4.8,    5.0,    5.3,    5.8,  999.0,    6.0,    6.4,    5.8,    6.1,    5.5,  999.0,    4.1,    4.0,    4.0,    4.1,    3.5,  999.0,  999.0,  999.0,  999.0,  999.0,  999.0,  999.0,  999.0,  999.0,    2.2,    2.8,  999.0,  999.0,  999.0,  999.0,  999.0,  999.0,  999.0,  999.0,  999.0,    4.0,    4.0,    4.6,    4.5,  999.0,  999.0,  999.0,  999.0,  999.0,  999.0,  999.0,  999.0,  999.0,  999.0,  999.0,  999.0,  999.0,  999.0,  999.0,  999.0,  999.0,  999.0,  999.0,  999.0,  999.0,  999.0,  999.0,  999.0,  999.0,  999.0,  999.0,  999.0,  999.0,  999.0,  999.0,  999.0,  999.0,  999.0,  999.0,  999.0,  999.0
2010/01/26 17:40,   -0.3,   -0.2,   -0.6,   -0.7,   -0.7,    0.5,  999.0,  999.0,  999.0,  999.0,  -19.3,  999.0,  999.0,  -19.5,  999.0,  999.0,  999.0,  999.0,  999.0,  999.0,  999.0,    3.9,    3.6,    4.0,    4.5,    4.2,    5.1,    5.5,    5.5,    4.7,    4.9,    4.2,  999.0,    3.2,    3.3,    3.7,    3.2,    3.7,  999.0,  999.0,  999.0,  999.0,  999.0,    4.0,    4.6,  999.0,  999.0,    3.1,  999.0,  999.0,  999.0,  999.0,  999.0,  999.0,  999.0,  999.0,    4.4,    3.9,    4.5,  999.0,  999.0,  999.0,  999.0,  999.0,  999.0,  999.0,  999.0,  999.0,  999.0,  999.0,  999.0,  999.0,  999.0,  999.0,  999.0,  999.0,  999.0,  999.0,  999.0,  999.0,  999.0,  999.0,  999.0,  999.0,  999.0,  999.0,  999.0,  999.0,  999.0,  999.0,  999.0,  999.0,  999.0,  999.0,  999.0,  999.0,  999.0,  999.0
2010/01/26 17:50,   -0.7,   -0.2,   -0.9,   -0.9,   -0.4,  999.0,  999.0,  999.0,  999.0,  999.0,  999.0,  999.0,  999.0,  -18.8,  999.0,  999.0,  999.0,  999.0,  999.0,    3.4,    4.2,    4.1,    4.1,    4.4,    4.4,    4.6,    5.0,    5.6,    6.1,    5.0,    4.6,  999.0,  999.0,    3.5,    3.2,    3.6,  999.0,  999.0,  999.0,  999.0,  999.0,  999.0,  999.0,    3.6,  999.0,  999.0,  999.0,  999.0,  999.0,  999.0,  999.0,  999.0,    2.7,    3.9,    4.0,    4.0,  999.0,  999.0,  999.0,  999.0,  999.0,  999.0,  999.0,  999.0,  999.0,  999.0,  999.0,  999.0,  999.0,  999.0,  999.0,  999.0,  999.0,  999.0,  999.0,  999.0,  999.0,  999.0,  999.0,  999.0,  999.0,  999.0,  999.0,  999.0,  999.0,  999.0,  999.0,  999.0,  999.0,  999.0,  999.0,  999.0,  999.0,  999.0,  999.0,  999.0,  999.0,  999.0
2010/01/26 18:00,   -0.8,    5.6,  999.0,  999.0,  999.0,  999.0,  999.0,  999.0,  999.0,  999.0,  999.0,  999.0,  999.0,  999.0,  999.0,  999.0,    3.7,    3.6,    3.7,    3.4,    3.7,    3.9,    4.2,    4.5,  999.0,    4.6,    5.1,    5.1,    6.1,    5.8,  999.0,  999.0,  999.0,    3.5,    3.9,  999.0,  999.0,  999.0,  999.0,  999.0,  999.0,  999.0,  999.0,    4.0,    2.8,  999.0,  999.0,  999.0,  999.0,  999.0,  999.0,  999.0,  999.0,  999.0,    3.0,  999.0,    2.7,    3.4,    3.6,  999.0,    4.2,  999.0,  999.0,  999.0,  999.0,  999.0,  999.0,  999.0,  999.0,  999.0,  999.0,  999.0,  999.0,  999.0,  999.0,  999.0,  999.0,  999.0,  999.0,  999.0,  999.0,  999.0,  999.0,  999.0,  999.0,  999.0,  999.0,  999.0,  999.0,  999.0,  999.0,  999.0,  999.0,  999.0,  999.0,  999.0,  999.0,  999.0
2010/01/26 18:10,  999.0,  999.0,   -1.0,   -0.9,   -0.9,  999.0,    8.0,  999.0,  999.0,  999.0,  999.0,  999.0,  999.0,  999.0,  999.0,  999.0,    3.9,    3.3,    3.5,    4.3,    4.5,    4.4,    4.0,    4.4,  999.0,    4.0,    3.8,    4.4,    4.2,    3.7,  999.0,    3.5,    3.7,  999.0,  999.0,    4.6,    4.8,  999.0,  999.0,  999.0,  999.0,  999.0,  999.0,    3.6,  999.0,    2.3,    2.7,  999.0,    2.9,    3.1,    1.9,  999.0,  999.0,    2.6,    3.6,  999.0,  999.0,  999.0,  999.0,  999.0,    3.5,  999.0,  999.0,  999.0,  999.0,  999.0,  999.0,  999.0,  999.0,  999.0,  999.0,  999.0,  999.0,  999.0,  999.0,  999.0,  999.0,  999.0,  999.0,  999.0,  999.0,  999.0,  999.0,  999.0,  999.0,  999.0,  999.0,  999.0,  999.0,  999.0,  999.0,  999.0,  999.0,  999.0,  999.0,  999.0,  999.0,  999.0
2010/01/26 18:20,   -1.0,   -0.3,   -0.9,   -0.9,   -0.7,  999.0,  999.0,  999.0,  999.0,    0.1,  999.0,    2.2,  999.0,    2.9,    3.0,    3.1,    3.0,    2.8,    2.9,    3.4,    3.8,    3.5,    3.3,    4.2,    4.6,    4.4,    4.1,    4.6,    4.8,    3.9,    3.7,    3.4,    3.4,    3.5,    3.4,    3.8,  999.0,  999.0,  999.0,  999.0,  999.0,  999.0,  999.0,    4.6,  999.0,    3.4,    3.6,    3.2,    2.9,  999.0,    3.3,  999.0,  999.0,    2.4,  999.0,  999.0,  999.0,  999.0,  999.0,  999.0,  999.0,  999.0,  999.0,  999.0,  999.0,  999.0,  999.0,  999.0,  999.0,  999.0,  999.0,  999.0,  999.0,  999.0,  999.0,  999.0,  999.0,  999.0,  999.0,  999.0,  999.0,  999.0,  999.0,  999.0,  999.0,  999.0,  999.0,  999.0,  999.0,  999.0,  999.0,  999.0,  999.0,  999.0,  999.0,  999.0,  999.0,  999.0
2010/01/26 18:30,  999.0,  999.0,   -1.0,   -0.8,   -0.4,   -0.3,  999.0,  999.0,  999.0,  999.0,    2.9,    2.9,    3.7,    4.4,    4.4,    4.0,    3.8,    3.3,    3.3,    3.5,    4.0,    3.5,    2.7,    3.1,    3.4,    3.7,    3.7,    3.3,    3.7,    3.0,    3.1,    2.9,  999.0,    3.2,  999.0,    4.7,  999.0,  999.0,  999.0,  999.0,  999.0,  999.0,  999.0,    5.0,  999.0,    4.2,    4.7,    5.0,    5.3,  999.0,    3.0,  999.0,  999.0,    2.0,  999.0,  999.0,  999.0,  999.0,  999.0,  999.0,  999.0,  999.0,  999.0,  999.0,  999.0,  999.0,  999.0,    2.3,  999.0,  999.0,  999.0,  999.0,  999.0,  999.0,  999.0,  999.0,  999.0,  999.0,  999.0,  999.0,  999.0,  999.0,  999.0,  999.0,  999.0,  999.0,  999.0,  999.0,  999.0,  999.0,  999.0,  999.0,  999.0,  999.0,  999.0,  999.0,  999.0,  999.0
2010/01/26 18:40,  999.0,  999.0,  999.0,   -2.9,   -4.3,  999.0,   -1.2,   -1.2,   -0.1,    2.0,    3.6,    3.0,    3.9,    4.5,    5.0,    4.4,    3.8,    3.3,    3.1,    3.3,    3.6,    1.7,    2.5,    2.7,    3.2,    2.7,    3.5,    3.5,    3.7,    2.8,  999.0,  999.0,  999.0,    2.4,    3.3,  999.0,  999.0,  999.0,  999.0,  999.0,  999.0,  999.0,  999.0,  999.0,  999.0,  999.0,    4.3,    4.3,  999.0,    2.8,    2.9,    3.3,    2.8,    2.8,    3.5,  999.0,  999.0,  999.0,  999.0,  999.0,    2.8,  999.0,  999.0,  999.0,  999.0,  999.0,  999.0,  999.0,  999.0,  999.0,  999.0,  999.0,  999.0,  999.0,  999.0,  999.0,  999.0,  999.0,  999.0,  999.0,  999.0,  999.0,  999.0,  999.0,  999.0,  999.0,  999.0,  999.0,  999.0,  999.0,  999.0,  999.0,  999.0,  999.0,  999.0,  999.0,  999.0,  999.0
2010/01/26 18:50,  999.0,  999.0,  999.0,  999.0,  999.0,    0.2,   -0.9,    0.8,    1.2,    0.4,    2.2,    1.5,    1.2,    2.2,    1.3,    1.3,    2.3,    2.5,    2.9,    3.4,    3.8,    3.1,    3.2,    3.5,    3.4,  999.0,    3.3,    4.4,    4.7,    4.5,    4.7,    3.5,    3.7,    3.7,    4.1,  999.0,    3.8,  999.0,  999.0,  999.0,  999.0,  999.0,  999.0,    3.8,  999.0,  999.0,  999.0,  999.0,  999.0,  999.0,    2.1,    2.7,    2.9,    1.7,    4.3,  999.0,  999.0,  999.0,  999.0,  999.0,  999.0,  999.0,  999.0,  999.0,  999.0,  999.0,  999.0,  999.0,  999.0,  999.0,  999.0,  999.0,  999.0,  999.0,  999.0,  999.0,  999.0,  999.0,  999.0,  999.0,  999.0,  999.0,  999.0,  999.0,  999.0,  999.0,  999.0,  999.0,  999.0,  999.0,  999.0,  999.0,  999.0,  999.0,  999.0,  999.0,  999.0,  999.0
2010/01/26 19:00,  999.0,  999.0,  999.0,  999.0,  999.0,  999.0,  999.0,  999.0,  999.0,   -0.0,    0.1,   -0.7,   -0.5,    0.1,   -2.0,    0.1,    1.0,    1.5,    2.2,    2.9,    3.4,    3.4,    3.0,    3.2,    3.6,    3.5,    3.4,    3.6,    4.4,    3.4,    3.5,    3.2,    2.2,    2.7,    3.2,  999.0,  999.0,  999.0,  999.0,  999.0,  999.0,  999.0,  999.0,  999.0,    2.4,    3.7,    3.2,    4.4,  999.0,  999.0,  999.0,    2.0,    2.6,    2.9,    3.8,  999.0,  999.0,  999.0,  999.0,  999.0,  999.0,  999.0,  999.0,  999.0,  999.0,  999.0,  999.0,  999.0,  999.0,  999.0,  999.0,  999.0,  999.0,  999.0,  999.0,  999.0,  999.0,  999.0,  999.0,  999.0,  999.0,  999.0,  999.0,  999.0,  999.0,  999.0,  999.0,  999.0,  999.0,  999.0,  999.0,    0.2,  999.0,  999.0,  999.0,  999.0,  999.0,  999.0
2010/01/26 19:10,  999.0,  999.0,  999.0,  999.0,  999.0,  999.0,  999.0,  999.0,  999.0,  999.0,    0.1,   -1.1,  999.0,   -0.8,   -3.7,  999.0,   -1.1,    0.7,    1.4,    2.6,    4.5,    3.2,    3.4,    3.4,    3.3,    3.1,    2.8,    2.4,    2.5,    2.8,    2.5,    1.4,    1.4,  999.0,  999.0,  999.0,  999.0,  999.0,  999.0,  999.0,  999.0,  999.0,  999.0,    3.0,    3.4,    1.3,    3.2,    4.1,  999.0,  999.0,    3.9,    3.4,    4.1,    5.7,  999.0,  999.0,  999.0,  999.0,  999.0,  999.0,  999.0,  999.0,  999.0,  999.0,  999.0,  999.0,  999.0,  999.0,  999.0,  999.0,  999.0,  999.0,  999.0,  999.0,  999.0,  999.0,  999.0,  999.0,  999.0,  999.0,  999.0,  999.0,  999.0,  999.0,  999.0,  999.0,  999.0,  999.0,  999.0,  999.0,  999.0,  999.0,  999.0,  999.0,  999.0,  999.0,  999.0,  999.0
2010/01/26 19:20,  999.0,  999.0,  999.0,  999.0,  999.0,   -1.6,   -2.5,   -3.3,   -2.5,   -2.9,   -2.3,   -2.2,   -2.5,   -1.7,   -3.3,   -1.7,    1.0,    2.2,    2.3,    1.9,    3.2,    2.9,    2.8,    3.4,    3.8,    3.6,    3.2,    3.3,    4.0,    4.3,    3.7,    3.8,    1.4,    1.6,    1.8,    3.0,  999.0,  999.0,    3.8,  999.0,  999.0,  999.0,  999.0,    3.0,  999.0,    2.7,    2.8,    2.9,    3.8,  999.0,    3.2,    2.9,    3.4,  999.0,  999.0,  999.0,  999.0,  999.0,  999.0,  999.0,  999.0,  999.0,  999.0,  999.0,  999.0,  999.0,  999.0,  999.0,  999.0,  999.0,  999.0,  999.0,  999.0,  999.0,  999.0,  999.0,  999.0,  999.0,  999.0,  999.0,  999.0,  999.0,  999.0,  999.0,  999.0,  999.0,  999.0,  999.0,  999.0,  999.0,  999.0,  999.0,  999.0,  999.0,  999.0,  999.0,  999.0,  999.0
2010/01/26 19:30,  999.0,  999.0,  999.0,  999.0,  999.0,   -0.5,   -3.3,   -1.5,   -2.9,   -2.5,   -2.6,   -1.5,   -1.2,   -0.2,   -0.4,    0.4,    3.4,    2.9,    2.4,    3.8,    4.3,    4.0,    3.8,    3.6,    2.7,    3.0,    3.2,    3.7,    4.3,    3.7,    3.5,    4.0,    1.6,    0.1,    1.7,  999.0,  999.0,    1.5,    3.5,    4.1,  999.0,  999.0,  999.0,  999.0,  999.0,    2.1,    2.1,  999.0,  999.0,  999.0,    4.8,  999.0,  999.0,  999.0,  999.0,  999.0,  999.0,  999.0,  999.0,  999.0,  999.0,  999.0,  999.0,  999.0,  999.0,  999.0,  999.0,  999.0,  999.0,  999.0,  999.0,  999.0,  999.0,  999.0,  999.0,  999.0,  999.0,  999.0,  999.0,  999.0,  999.0,  999.0,  999.0,  999.0,  999.0,  999.0,  999.0,  999.0,  999.0,  999.0,  999.0,  999.0,  999.0,  999.0,  999.0,  999.0,  999.0,  999.0
2010/01/26 19:40,  999.0,  999.0,  999.0,    0.5,  999.0,   -2.8,  999.0,   -2.5,  999.0,   -2.8,   -1.8,  999.0,   -3.6,   -1.1,   -0.9,    3.7,    3.1,    3.8,    3.2,    3.8,    3.7,    4.2,    4.2,    3.8,    3.9,    4.3,    3.1,    3.3,    4.2,    4.7,    4.5,    2.8,    2.9,    2.2,    2.8,    3.3,  999.0,    3.2,    3.3,    3.4,    3.6,  999.0,    2.3,    2.4,    1.8,  999.0,  999.0,  999.0,  999.0,  999.0,  999.0,  999.0,  999.0,  999.0,  999.0,  999.0,  999.0,  999.0,  999.0,  999.0,  999.0,  999.0,  999.0,  999.0,  999.0,  999.0,  999.0,  999.0,  999.0,  999.0,  999.0,  999.0,  999.0,  999.0,  999.0,  999.0,  999.0,  999.0,  999.0,  999.0,  999.0,  999.0,  999.0,  999.0,  999.0,  999.0,  999.0,  999.0,  999.0,  999.0,  999.0,  999.0,  999.0,  999.0,  999.0,  999.0,  999.0,  999.0
2010/01/26 19:50,  999.0,  999.0,    0.5,    1.3,   -0.4,  999.0,   -0.0,  999.0,  999.0,  999.0,   -3.5,   -1.7,   -1.8,    0.4,  999.0,    2.5,    3.5,    3.8,    3.5,    3.3,    3.6,    3.7,    3.7,    3.5,    3.4,    3.0,    3.1,    2.9,    3.6,    4.0,    4.4,    2.9,    3.1,  999.0,  999.0,    2.4,    3.1,  999.0,    2.8,    3.6,  999.0,    2.3,    2.0,    2.5,  999.0,  999.0,  999.0,    2.7,    2.7,  999.0,  999.0,    2.0,  999.0,    1.4,  999.0,  999.0,  999.0,  999.0,  999.0,  999.0,  999.0,  999.0,  999.0,  999.0,  999.0,  999.0,  999.0,  999.0,  999.0,  999.0,  999.0,  999.0,  999.0,  999.0,  999.0,  999.0,  999.0,  999.0,  999.0,  999.0,  999.0,  999.0,  999.0,  999.0,  999.0,  999.0,  999.0,  999.0,  999.0,  999.0,  999.0,  999.0,  999.0,  999.0,  999.0,  999.0,  999.0,  999.0
2010/01/26 20:00,  999.0,  999.0,  999.0,  999.0,  999.0,  999.0,  999.0,  999.0,  999.0,  999.0,   -5.4,   -4.3,   -4.0,   -4.2,  999.0,   -2.0,    0.7,    3.5,    3.8,    3.6,    3.1,    3.6,    3.9,    3.1,    3.3,    2.8,    2.5,    2.5,    3.2,    3.9,    4.1,    3.8,    3.1,    3.3,  999.0,    2.9,    3.5,  999.0,    3.1,    3.7,  999.0,  999.0,  999.0,  999.0,  999.0,    1.3,  999.0,  999.0,  999.0,  999.0,  999.0,  999.0,  999.0,  999.0,  999.0,  999.0,  999.0,  999.0,  999.0,  999.0,  999.0,  999.0,  999.0,  999.0,  999.0,  999.0,  999.0,  999.0,  999.0,  999.0,  999.0,  999.0,  999.0,  999.0,  999.0,  999.0,  999.0,  999.0,  999.0,  999.0,  999.0,  999.0,  999.0,  999.0,  999.0,  999.0,  999.0,  999.0,  999.0,  999.0,  999.0,  999.0,  999.0,  999.0,  999.0,  999.0,  999.0,  999.0
2010/01/26 20:10,  999.0,  999.0,  999.0,  999.0,  999.0,  999.0,  999.0,  999.0,  999.0,  999.0,   -3.7,  999.0,    2.1,  999.0,   -0.9,   -1.2,    4.3,    4.6,    3.8,    3.7,    3.5,    3.7,    3.9,    3.3,    2.4,    2.5,    3.0,    2.9,    3.8,    3.8,    4.2,    4.1,    3.5,    3.2,    2.3,    2.8,    3.0,    3.0,    3.7,  999.0,  999.0,  999.0,  999.0,  999.0,  999.0,  999.0,    2.7,  999.0,  999.0,  999.0,  999.0,  999.0,  999.0,  999.0,  999.0,  999.0,  999.0,  999.0,  999.0,  999.0,  999.0,  999.0,  999.0,  999.0,  999.0,  999.0,  999.0,  999.0,  999.0,  999.0,  999.0,  999.0,  999.0,  999.0,  999.0,  999.0,  999.0,  999.0,  999.0,  999.0,  999.0,  999.0,  999.0,  999.0,  999.0,  999.0,  999.0,  999.0,  999.0,  999.0,  999.0,  999.0,  999.0,  999.0,  999.0,  999.0,  999.0,  999.0
2010/01/26 20:20,   -0.4,  999.0,  999.0,    0.5,  999.0,  999.0,  999.0,  999.0,  999.0,  999.0,  999.0,  999.0,  999.0,    2.1,    3.8,    4.6,    5.6,    5.6,    4.7,    3.8,    3.1,    3.7,    4.1,    3.3,    2.8,    2.4,    2.9,    3.1,    3.7,    3.2,    3.7,    3.6,    2.9,    3.4,  999.0,    1.5,    2.1,  999.0,  999.0,  999.0,  999.0,    2.0,    1.3,  999.0,  999.0,  999.0,  999.0,  999.0,  999.0,  999.0,  999.0,  999.0,  999.0,  999.0,  999.0,  999.0,  999.0,  999.0,  999.0,  999.0,  999.0,  999.0,  999.0,  999.0,  999.0,  999.0,  999.0,  999.0,  999.0,  999.0,  999.0,  999.0,  999.0,  999.0,  999.0,  999.0,  999.0,  999.0,  999.0,  999.0,  999.0,  999.0,  999.0,  999.0,  999.0,  999.0,  999.0,  999.0,  999.0,  999.0,  999.0,  999.0,  999.0,  999.0,  999.0,  999.0,  999.0,  999.0
2010/01/26 20:30,  999.0,  999.0,  999.0,  999.0,  999.0,  999.0,  999.0,  999.0,  999.0,  999.0,  999.0,  999.0,  999.0,   -0.3,    1.5,    2.8,    2.9,    3.3,    3.3,    4.0,    3.6,    4.1,    3.9,    3.7,    1.4,    2.0,    2.4,    3.4,    3.9,    3.7,    3.9,    3.4,    3.1,    2.8,    2.5,    2.0,    2.0,  999.0,  999.0,  999.0,  999.0,  999.0,  999.0,  999.0,    1.2,    1.8,  999.0,  999.0,  999.0,  999.0,  999.0,  999.0,  999.0,  999.0,  999.0,  999.0,  999.0,  999.0,  999.0,  999.0,  999.0,  999.0,  999.0,  999.0,  999.0,  999.0,  999.0,  999.0,  999.0,  999.0,  999.0,  999.0,  999.0,  999.0,  999.0,  999.0,  999.0,  999.0,  999.0,  999.0,  999.0,  999.0,  999.0,  999.0,  999.0,  999.0,  999.0,  999.0,  999.0,  999.0,  999.0,  999.0,  999.0,  999.0,  999.0,  999.0,  999.0,  999.0
2010/01/26 20:40,  999.0,  999.0,  999.0,  999.0,  999.0,  999.0,  999.0,  999.0,  999.0,  999.0,  999.0,  999.0,  999.0,  999.0,   -0.8,    4.0,    4.8,    5.0,    4.9,    5.0,    4.7,    4.9,    5.1,    4.6,    3.7,    3.2,    3.5,    4.0,    4.8,    4.7,    3.6,    3.4,    2.7,    1.9,  999.0,    1.8,  999.0,  999.0,  999.0,  999.0,  999.0,  999.0,  999.0,  999.0,  999.0,  999.0,  999.0,  999.0,  999.0,  999.0,  999.0,  999.0,  999.0,  999.0,  999.0,  999.0,  999.0,  999.0,  999.0,  999.0,  999.0,  999.0,  999.0,  999.0,  999.0,  999.0,  999.0,  999.0,  999.0,  999.0,  999.0,  999.0,  999.0,  999.0,  999.0,  999.0,  999.0,  999.0,  999.0,  999.0,  999.0,  999.0,  999.0,  999.0,  999.0,  999.0,  999.0,  999.0,  999.0,  999.0,  999.0,  999.0,  999.0,  999.0,  999.0,  999.0,  999.0,  999.0
2010/01/26 20:50,  999.0,  999.0,  999.0,  999.0,  999.0,  999.0,  999.0,  999.0,  999.0,  999.0,  999.0,  999.0,  999.0,   -1.2,    0.5,    3.6,    3.7,    3.3,    3.8,    4.5,    4.1,    3.5,    4.2,    4.1,    4.2,    3.1,    3.6,    4.7,    5.3,    4.6,    4.3,    3.7,    2.8,    1.6,    1.7,  999.0,  999.0,  999.0,  999.0,  999.0,  999.0,  999.0,  999.0,  999.0,  999.0,  999.0,  999.0,  999.0,  999.0,  999.0,  999.0,  999.0,  999.0,    3.4,  999.0,  999.0,  999.0,  999.0,  999.0,  999.0,    4.3,  999.0,  999.0,  999.0,  999.0,  999.0,  999.0,  999.0,  999.0,  999.0,  999.0,  999.0,  999.0,  999.0,  999.0,  999.0,  999.0,  999.0,  999.0,  999.0,  999.0,  999.0,  999.0,  999.0,  999.0,  999.0,  999.0,  999.0,  999.0,  999.0,  999.0,  999.0,  999.0,  999.0,  999.0,  999.0,  999.0,  999.0
2010/01/26 21:00,  999.0,  999.0,  999.0,  999.0,  999.0,  999.0,  999.0,  999.0,    1.3,    1.2,  999.0,  999.0,  999.0,  999.0,   -1.6,    0.8,    3.3,    4.1,    4.5,    4.5,    4.8,    4.5,    4.3,    4.0,    2.9,    2.2,    2.8,    3.5,    4.0,    3.9,    3.2,    3.2,    2.9,    1.8,    1.1,    1.3,  999.0,  999.0,  999.0,    1.5,  999.0,  999.0,  999.0,  999.0,  999.0,  999.0,  999.0,  999.0,  999.0,    2.5,    2.7,  999.0,    0.9,    1.3,    3.0,  999.0,  999.0,  999.0,  999.0,  999.0,  999.0,  999.0,  999.0,  999.0,  999.0,  999.0,  999.0,  999.0,  999.0,  999.0,  999.0,  999.0,  999.0,  999.0,  999.0,  999.0,  999.0,  999.0,  999.0,  999.0,  999.0,  999.0,  999.0,  999.0,  999.0,  999.0,  999.0,  999.0,  999.0,  999.0,  999.0,  999.0,  999.0,  999.0,  999.0,  999.0,  999.0,  999.0
2010/01/26 21:10,  999.0,  999.0,  999.0,  999.0,  999.0,  999.0,   -0.8,    2.0,    0.6,    0.5,    0.9,    0.4,    2.0,    2.6,    3.0,    3.9,    4.2,    5.3,    5.2,    5.2,    3.8,    3.5,    2.7,    2.6,    1.3,    0.7,    1.8,    1.4,    1.2,    1.8,    1.7,    1.7,    1.8,    1.8,    1.9,    2.0,    2.4,  999.0,  999.0,  999.0,  999.0,  999.0,  999.0,  999.0,  999.0,  999.0,  999.0,  999.0,  999.0,    3.9,    2.6,  999.0,  999.0,  999.0,  999.0,  999.0,  999.0,  999.0,  999.0,  999.0,  999.0,  999.0,  999.0,  999.0,  999.0,  999.0,  999.0,  999.0,  999.0,  999.0,  999.0,  999.0,  999.0,  999.0,  999.0,  999.0,  999.0,  999.0,  999.0,  999.0,  999.0,  999.0,  999.0,  999.0,  999.0,  999.0,  999.0,  999.0,  999.0,  999.0,  999.0,  999.0,  999.0,  999.0,  999.0,  999.0,  999.0,  999.0
2010/01/26 21:20,  999.0,  999.0,  999.0,  999.0,  999.0,  999.0,  999.0,   -0.9,    0.1,    1.2,    2.9,    3.9,    3.2,    0.7,    2.0,    2.5,    4.1,    4.8,    4.8,    5.0,    3.7,    3.4,    2.1,    2.9,    3.1,    2.8,    1.8,    2.5,    3.8,    3.3,    2.9,    2.2,    2.1,    1.9,    1.6,    2.2,    1.8,  999.0,  999.0,  999.0,  999.0,  999.0,  999.0,  999.0,  999.0,  999.0,  999.0,  999.0,  999.0,  999.0,  999.0,  999.0,    5.2,    4.6,  999.0,  999.0,  999.0,  999.0,  999.0,  999.0,  999.0,  999.0,  999.0,  999.0,  999.0,  999.0,  999.0,  999.0,  999.0,  999.0,  999.0,  999.0,  999.0,  999.0,  999.0,  999.0,  999.0,  999.0,  999.0,  999.0,  999.0,  999.0,  999.0,  999.0,  999.0,  999.0,  999.0,  999.0,  999.0,  999.0,  999.0,  999.0,  999.0,  999.0,  999.0,  999.0,  999.0,  999.0
2010/01/26 21:30,    4.7,  999.0,  999.0,  999.0,  999.0,  999.0,   -0.0,    4.7,    6.1,    1.6,    2.2,    2.9,    3.8,    3.4,    3.3,    3.8,    3.5,    3.5,    3.4,    4.0,    3.8,    2.9,    5.0,    5.6,    6.4,    7.0,    7.4,    8.3,    8.8,    8.5,    6.8,    8.7,    6.4,    5.5,    6.5,    4.1,    4.3,  999.0,    3.9,    1.4,    3.4,  999.0,  999.0,    3.4,    2.1,    2.1,    1.6,    1.4,    1.1,    1.2,    1.6,    2.0,    2.7,    2.7,    2.9,    3.7,    4.0,    4.9,    5.1,    5.6,    5.9,  999.0,  999.0,  999.0,  999.0,  999.0,  999.0,  999.0,  999.0,  999.0,  999.0,  999.0,  999.0,  999.0,  999.0,  999.0,  999.0,  999.0,  999.0,  999.0,  999.0,  999.0,  999.0,  999.0,  999.0,  999.0,  999.0,  999.0,  999.0,  999.0,  999.0,  999.0,  999.0,  999.0,  999.0,  999.0,  999.0,  999.0
2010/01/26 21:40,  999.0,  999.0,  999.0,  999.0,  999.0,   -7.9,   -4.3,   -3.5,   -3.2,   -4.6,  -14.2,  -12.2,   -7.7,   -5.6,   -4.2,   -3.0,   -1.5,   -2.5,   -0.4,    1.8,    2.3,    2.0,    1.7,    1.8,    2.1,    2.1,    1.6,    1.1,    0.7,   -0.1,   -0.3,   -1.2,   -1.7,   -2.4,   -2.9,   -2.8,   -2.6,   -2.3,   -2.9,   -3.9,   -4.2,   -5.0,   -2.5,   -2.5,   -1.3,   -0.8,    0.1,    1.3,    2.4,    2.6,    2.5,    2.3,    2.8,    3.4,    3.6,    4.1,    4.5,    5.5,    6.3,    6.8,    7.4,    7.0,    6.3,    5.9,    5.1,    4.7,    5.0,    5.4,    5.5,    5.2,    4.5,    3.9,    3.3,    3.3,  999.0,  999.0,  999.0,  999.0,  999.0,  999.0,  999.0,  999.0,  999.0,  999.0,  999.0,  999.0,  999.0,  999.0,  999.0,  999.0,  999.0,  999.0,  999.0,  999.0,  999.0,  999.0,  999.0,  999.0
2010/01/26 21:50,  999.0,  999.0,  999.0,  999.0,  999.0,   -5.8,   -4.3,   -4.3,   -5.5,   -6.7,   -5.1,   -5.6,   -5.0,   -5.1,   -3.5,   -7.2,   -3.9,   -2.7,   -1.8,   -1.8,   -2.3,   -2.4,   -3.2,   -5.7,   -5.6,   -4.1,   -3.6,   -3.0,   -2.8,   -2.7,   -3.3,   -4.8,   -4.5,   -5.2,   -6.5,   -9.9,   -6.6,   -5.3,   -5.9,   -6.7,  -11.7,  -12.0,   -9.5,   -5.6,   -2.3,    0.8,    1.2,    1.0,    1.7,    1.9,    1.9,    1.9,    2.5,    2.8,    3.4,    3.8,    4.4,    4.7,    5.2,    5.6,    5.3,    4.7,    3.9,    2.8,    2.4,    2.7,    3.2,    3.5,    3.2,    2.7,    2.1,    1.7,    0.9,    1.7,    2.5,  999.0,  999.0,  999.0,  999.0,  999.0,  999.0,  999.0,  999.0,  999.0,  999.0,   -2.3,    0.1,    1.3,    2.9,    3.3,  999.0,    4.8,    4.2,  999.0,  999.0,  999.0,  999.0,  999.0
2010/01/26 22:00,  999.0,    0.1,  999.0,  999.0,  999.0,    1.0,  999.0,  999.0,   -0.9,   -1.6,    2.2,   -0.9,  999.0,  999.0,  999.0,    1.9,  999.0,  999.0,    3.4,    3.4,    3.7,    1.4,    3.8,    4.4,    5.2,    6.5,    4.5,    5.6,    5.4,    4.2,    4.0,    3.5,    2.7,    2.6,  999.0,  999.0,  999.0,  999.0,  999.0,  999.0,  999.0,  999.0,  999.0,  999.0,  999.0,  999.0,  999.0,  999.0,  999.0,  999.0,  999.0,  999.0,  999.0,  999.0,  999.0,  999.0,  999.0,  999.0,  999.0,  999.0,  999.0,  999.0,  999.0,  999.0,  999.0,  999.0,  999.0,  999.0,  999.0,  999.0,  999.0,  999.0,  999.0,  999.0,  999.0,  999.0,  999.0,  999.0,  999.0,  999.0,  999.0,  999.0,  999.0,  999.0,  999.0,  999.0,  999.0,  999.0,  999.0,  999.0,  999.0,  999.0,  999.0,  999.0,  999.0,  999.0,  999.0,  999.0
2010/01/26 22:10,  999.0,  999.0,  999.0,  999.0,  999.0,  999.0,  999.0,  999.0,  999.0,    4.0,    3.6,    4.9,    4.4,   -3.4,   -2.2,   -1.4,   -0.2,    1.1,    1.9,    4.8,    5.3,    5.8,    5.0,    3.6,    2.8,    2.8,    2.0,    1.2,    0.9,    0.9,    0.1,   -0.4,   -0.5,   -1.1,   -1.3,   -0.6,    0.1,    0.8,    0.6,   -0.3,   -1.5,   -1.0,   -1.0,    1.5,    4.6,  999.0,  999.0,    1.0,    0.5,    1.5,    2.4,    2.5,    2.4,    2.4,    2.3,    2.4,    2.6,    2.7,    2.6,    2.8,    3.0,    3.5,    3.7,    3.8,    3.7,    3.3,    2.7,    2.3,    2.2,    2.3,    2.0,  999.0,   -2.2,   -1.3,   -0.6,    0.1,    0.5,    0.4,   -0.4,   -1.6,   -3.2,   -4.1,   -4.4,   -3.8,   -2.8,   -1.9,   -1.0,    0.1,    2.1,    4.1,    6.8,    7.5,    7.1,  999.0,  999.0,  999.0,  999.0,  999.0
2010/01/26 22:20,  999.0,  999.0,  999.0,  999.0,  999.0,  999.0,  999.0,  -12.8,  -11.0,   -8.6,   -3.3,   -3.7,   -9.1,   -7.7,   -5.8,   -2.5,   -0.1,    2.7,    5.0,    6.3,    7.5,    7.3,    5.8,    3.8,    3.3,    2.9,    2.4,    1.9,    1.6,    1.3,    1.1,    0.2,   -0.4,   -1.0,   -0.8,   -0.8,   -0.6,   -0.2,    0.1,    0.0,    0.3,    0.4,   -1.1,    0.4,  999.0,    0.7,    0.2,   -0.9,   -0.4,    2.0,    3.6,    4.5,    5.1,    5.6,    5.3,    4.6,    4.1,    4.1,    4.2,    3.9,    3.8,    3.9,    3.4,    2.7,    2.5,    2.2,    2.0,    1.9,    1.9,    1.6,   -0.1,   -1.3,   -1.6,   -1.2,   -0.2,    0.7,    0.8,   -0.4,   -2.4,   -4.0,   -4.9,   -5.7,   -6.1,   -4.8,   -3.4,   -2.0,   -0.8,    0.9,    2.3,    3.4,    4.3,    4.9,    5.7,    6.4,  999.0,    4.1,    3.9,    3.2
2010/01/26 22:30,  999.0,  999.0,  999.0,  999.0,  999.0,  999.0,  999.0,  999.0,  999.0,  999.0,  999.0,  999.0,  999.0,   -4.8,   -1.8,    0.7,   -0.4,   -0.3,   -0.3,    1.4,    2.7,    3.7,    3.2,    2.3,    2.2,    1.6,    2.2,    1.3,    1.5,    1.2,    1.3,   -0.1,   -1.6,   -2.5,   -3.2,   -3.0,   -3.2,   -2.6,   -2.5,   -2.0,   -1.8,   -0.7,   -0.4,    1.7,    3.1,    3.8,    2.3,    2.7,    2.9,    3.6,    3.4,    3.5,    3.9,    3.8,    3.8,    4.0,    4.1,    3.7,    3.3,    3.4,    3.9,    4.2,    4.3,    4.0,    3.3,    2.7,    2.4,    2.4,    2.7,    2.6,    1.1,   -0.1,   -0.3,   -0.5,   -0.5,   -0.2,   -0.1,   -0.9,   -2.5,   -3.0,   -2.9,   -2.3,   -1.6,   -0.7,    0.5,    1.2,    1.9,    2.2,    2.4,    2.7,    3.1,    3.8,    4.9,    6.1,    6.3,    6.1,    4.9,    3.5
2010/01/26 22:40,  999.0,  999.0,  999.0,  999.0,  999.0,  999.0,  999.0,  999.0,  999.0,  999.0,   -8.7,   -8.0,   -4.2,   -2.0,   -0.5,    0.8,    2.2,    2.0,    2.5,    2.9,    2.2,    1.8,    1.5,    1.2,    1.7,    2.0,    2.2,    2.2,    3.2,    2.9,    2.6,    2.1,    2.0,    2.4,    2.5,    3.5,    4.0,    3.6,    2.8,    2.8,    3.3,    2.2,    0.6,    0.5,    1.8,    2.3,    1.6,    1.2,    1.4,    1.7,    1.7,    2.2,    3.0,    3.3,    3.3,    3.1,    2.9,    2.7,    2.9,    3.7,    4.4,    5.0,    5.2,    5.1,    5.0,    4.2,    2.9,    1.9,    0.7,    0.7,    0.4,    1.3,    2.1,    2.5,    2.9,    3.3,    3.2,    1.9,   -0.4,   -1.5,   -1.8,   -1.8,   -1.9,   -1.7,   -0.9,   -0.1,    0.2,   -0.1,    0.1,    0.8,    0.9,    0.3,   -0.2,    0.3,    0.6,    0.7,    0.7,    1.2
2010/01/26 22:50,  999.0,  999.0,  999.0,  999.0,  999.0,   -3.5,   -6.4,   -6.0,   -8.0,   -8.5,   -9.8,  -10.2,   -9.0,   -8.0,   -5.7,   -2.7,   -0.9,   -0.1,    0.5,    2.2,    2.2,    2.6,    2.8,    3.2,    3.2,    4.3,    4.2,    4.3,    4.2,    4.4,    3.3,    2.4,    2.2,    1.7,    1.3,    1.2,    0.5,   -0.5,   -1.0,   -0.9,   -1.2,   -0.9,   -1.3,  999.0,  999.0,  999.0,    0.6,    0.1,   -0.1,   -0.3,    0.0,    0.3,    1.2,    2.0,    1.7,    2.0,    2.8,    4.2,    5.6,    5.1,    5.9,    6.4,    6.2,    5.7,    5.6,    5.1,    4.0,  999.0,    3.2,    3.5,    2.5,    2.9,    3.0,    2.8,    2.5,    1.1,    0.7,   -0.8,   -2.4,   -3.7,   -4.2,   -4.2,   -4.2,   -3.9,   -3.4,   -2.3,   -0.9,   -0.2,    0.2,    0.4,    0.8,    1.0,    1.0,    1.0,    1.1,    1.3,    1.5,    1.7
2010/01/26 23:00,  999.0,  999.0,  999.0,  999.0,  999.0,  999.0,  999.0,  999.0,   -2.3,  999.0,   -4.2,   -0.0,  999.0,    2.0,    2.6,    2.7,    1.9,    2.1,    3.4,    3.9,  999.0,    3.7,  999.0,  999.0,    3.7,  999.0,  999.0,  999.0,    4.0,    4.0,  999.0,  999.0,    4.0,    0.6,    0.2,   -0.9,   -1.8,   -1.6,    0.9,   -1.3,  999.0,  999.0,  999.0,  999.0,  999.0,  999.0,  999.0,  999.0,  999.0,  999.0,  999.0,  999.0,  999.0,  999.0,  999.0,  999.0,  999.0,  999.0,  999.0,  999.0,  999.0,  999.0,  999.0,  999.0,  999.0,  999.0,  999.0,  999.0,  999.0,  999.0,   -1.1,   -1.4,   -1.3,   -1.0,   -0.5,   -0.3,   -0.1,   -0.5,   -1.3,   -2.1,   -2.6,   -2.9,   -2.9,   -3.2,   -3.0,   -2.5,   -1.3,   -0.2,    0.2,    0.4,    0.8,    1.1,    1.1,    1.0,    1.0,    0.9,    1.3,    1.8
2010/01/26 23:10,  999.0,  999.0,  999.0,  999.0,  999.0,  999.0,  999.0,  999.0,  999.0,  999.0,  999.0,  999.0,    1.8,    2.7,    3.2,    3.0,    2.9,    3.3,    4.3,    4.8,    4.5,  999.0,  999.0,    4.0,    3.9,    3.7,    3.9,    4.5,    3.5,    3.8,    3.8,    3.9,    4.0,    3.8,    3.2,    2.9,    2.5,    2.1,    1.2,  999.0,  999.0,  999.0,    1.0,    1.1,    0.8,  999.0,  999.0,  999.0,  999.0,  999.0,  999.0,  999.0,    4.9,  999.0,    4.3,  999.0,  999.0,  999.0,  999.0,  999.0,  999.0,  999.0,  999.0,  999.0,    0.9,    0.9,    0.9,    1.5,    1.8,    1.6,    0.6,   -0.7,   -1.6,   -1.3,   -0.8,   -0.6,   -0.8,   -1.3,   -2.0,   -2.5,   -2.6,   -3.2,   -3.7,   -3.9,   -3.4,   -1.9,   -0.5,    0.6,    1.3,    1.9,    2.1,    2.3,    2.2,    2.1,    2.1,    2.3,    2.7,    2.5
2010/01/26 23:20,  999.0,  999.0,  999.0,  999.0,  999.0,    1.0,  999.0,    0.1,    0.7,  999.0,  999.0,  999.0,  999.0,    0.8,    0.2,    0.9,    1.7,    2.7,    4.1,    4.0,    4.9,    5.9,    0.2,    4.1,  999.0,  999.0,    3.9,    3.9,  999.0,  999.0,  999.0,    5.0,  999.0,  999.0,    2.8,    2.7,    2.8,    2.2,  999.0,  999.0,  999.0,    2.0,    1.9,    1.9,  999.0,  999.0,    1.4,    2.3,  999.0,  999.0,  999.0,    3.1,    4.3,  999.0,  999.0,  999.0,  999.0,  999.0,  999.0,  999.0,  999.0,  999.0,  999.0,    0.5,    0.3,    0.6,    0.7,    1.0,    1.2,    1.2,    0.9,    0.3,   -0.6,   -1.7,   -1.5,   -1.1,   -1.0,   -1.0,   -1.1,   -1.4,   -2.1,   -2.8,   -2.9,   -2.5,   -1.6,   -0.0,    1.3,    2.3,    3.0,    3.4,    3.5,    2.9,    2.9,    2.9,    3.0,    3.1,    3.0,    2.7
2010/01/26 23:30,   -2.1,   -2.3,  999.0,   -0.6,    0.2,  999.0,   -0.1,  999.0,  999.0,    0.1,  999.0,  999.0,  999.0,   -1.7,   -0.4,    1.9,    2.0,    3.4,    4.7,    3.6,    5.3,  999.0,  999.0,  999.0,    5.7,    4.9,    5.5,  999.0,  999.0,    4.6,    5.1,    5.3,    5.2,    3.8,    3.1,    2.8,    3.0,    2.3,    2.4,  999.0,  999.0,  999.0,    1.7,    2.0,  999.0,    1.6,  999.0,  999.0,  999.0,  999.0,  999.0,    2.6,    3.0,    3.0,    3.6,  999.0,  999.0,  999.0,  999.0,  999.0,  999.0,  999.0,  999.0,  999.0,    0.6,    0.1,    0.3,    0.7,    0.3,    0.2,   -0.4,   -1.4,   -2.3,   -2.3,   -1.9,   -1.7,   -1.5,   -1.0,   -0.5,   -0.5,   -1.3,   -1.8,   -1.7,   -1.1,   -0.5,    0.8,    2.3,    3.3,    3.7,    3.6,    3.4,    3.2,    3.2,    2.9,    2.4,    2.0,    1.1,    0.4
2010/01/26 23:40,  999.0,  999.0,  999.0,   -0.4,    0.6,  999.0,    1.2,    1.9,    0.8,   -0.3,   -0.3,  999.0,  999.0,   -1.1,  999.0,    1.7,    2.0,    2.8,    4.6,    4.8,    5.1,    5.2,  999.0,  999.0,  999.0,  999.0,  999.0,  999.0,  999.0,    4.9,    5.0,    5.2,    3.4,    2.9,    2.2,    2.5,  999.0,  999.0,  999.0,  999.0,  999.0,  999.0,    1.9,    2.1,  999.0,    1.4,    3.0,  999.0,  999.0,  999.0,  999.0,  999.0,  999.0,  999.0,  999.0,  999.0,  999.0,  999.0,  999.0,  999.0,  999.0,  999.0,  999.0,  999.0,  999.0,  999.0,  999.0,    1.7,    1.9,    1.6,    1.1,    0.4,   -0.6,   -1.1,   -1.0,   -1.3,   -1.9,   -2.1,   -1.7,   -1.6,   -2.2,   -2.6,   -2.2,   -1.7,   -0.9,    0.3,    1.6,    2.3,    2.5,    2.2,    1.9,    1.5,    1.4,    1.1,    0.7,    1.0,  999.0,  999.0
2010/01/26 23:50,  999.0,  999.0,  999.0,  999.0,  999.0,  999.0,   -0.2,    1.0,  999.0,  999.0,  999.0,  999.0,  999.0,  999.0,  999.0,  999.0,  999.0,    3.2,    4.1,    4.3,    4.0,    4.6,    4.3,    5.4,    5.5,    4.6,    5.0,  999.0,  999.0,    5.1,    5.1,    3.3,    3.8,    2.1,    1.9,    2.5,    2.8,  999.0,  999.0,  999.0,  999.0,  999.0,  999.0,  999.0,  999.0,    2.5,    2.9,  999.0,  999.0,  999.0,  999.0,  999.0,  999.0,  999.0,  999.0,  999.0,  999.0,  999.0,  999.0,  999.0,  999.0,  999.0,  999.0,  999.0,  999.0,  999.0,  999.0,  999.0,    1.0,    1.2,    0.9,    0.3,   -0.7,   -1.1,   -0.9,   -0.9,   -1.2,   -1.3,   -1.4,   -1.7,   -1.9,   -2.0,   -1.8,   -1.2,   -0.4,    0.8,    1.6,    1.8,    1.8,    2.0,    1.9,    2.0,    2.2,  999.0,  999.0,  999.0,  999.0,  999.0
